QTR789A YSSY-OJAI

Flight info

Callsign QTR789A
Flight time N/A
Altitude 34000
Route KADOM A576 PKS J141 LEC T21 PUGUT/N0490F360 T21 PD N509 TANEM/N0494F380 N509 ELATI/N0487F400 N640 KAT R461 MDI M300 EMURU N563 SODEX/N0509F340 N563 BOSEV/N0491F400 N563 KUSBA/N0485F430 N563 ALPOB L768 AAR V45 BONIS
Aircraft A359/H-SDE2E3GHIJ3J4J5LM1ORWXY/LB1D1

Departure

Time 2026-05-06 02:00
Airport Sydney Kingsford Smith International Airport (YSSY)

Arrival

Time N/A
Airport Queen Alia International Airport (OJAI)
Time Latitude Longitude Altitude Speed Heading
2026-05-06 01:21 -33.93859 151.16973 36 ft 0 kts 254°
2026-05-06 01:44 -33.93855 151.16987 50 ft 4 kts 254°
2026-05-06 01:44 -33.93848 151.17018 36 ft 4 kts 254°
2026-05-06 01:44 -33.93842 151.17045 35 ft 4 kts 251°
2026-05-06 01:44 -33.93829 151.17068 33 ft 4 kts 194°
2026-05-06 01:45 -33.93804 151.17066 35 ft 4 kts 165°
2026-05-06 01:45 -33.93796 151.17064 36 ft 0 kts 168°
2026-05-06 01:53 -33.93797 151.17064 36 ft 0 kts 168°
2026-05-06 01:53 -33.93804 151.17066 34 ft 3 kts 168°
2026-05-06 01:53 -33.93838 151.17074 33 ft 7 kts 168°
2026-05-06 01:53 -33.93903 151.17091 36 ft 12 kts 167°
2026-05-06 01:54 -33.93978 151.17141 36 ft 12 kts 112°
2026-05-06 01:54 -33.94021 151.17234 35 ft 14 kts 154°
2026-05-06 01:54 -33.94130 151.17267 34 ft 18 kts 166°
2026-05-06 01:54 -33.94261 151.17301 36 ft 20 kts 168°
2026-05-06 01:55 -33.94402 151.17336 36 ft 21 kts 168°
2026-05-06 01:55 -33.94550 151.17374 36 ft 22 kts 168°
2026-05-06 01:55 -33.94707 151.17415 36 ft 24 kts 167°
2026-05-06 01:55 -33.94872 151.17458 36 ft 25 kts 168°
2026-05-06 01:56 -33.95044 151.17504 36 ft 26 kts 167°
2026-05-06 01:56 -33.95222 151.17549 35 ft 27 kts 168°
2026-05-06 01:56 -33.95403 151.17594 36 ft 27 kts 168°
2026-05-06 01:56 -33.95588 151.17642 36 ft 27 kts 167°
2026-05-06 01:57 -33.95771 151.17691 36 ft 26 kts 168°
2026-05-06 01:57 -33.95949 151.17737 36 ft 26 kts 168°
2026-05-06 01:57 -33.96123 151.17782 36 ft 25 kts 168°
2026-05-06 01:57 -33.96295 151.17827 36 ft 25 kts 168°
2026-05-06 01:58 -33.96380 151.17850 36 ft 2 kts 164°
2026-05-06 01:58 -33.96398 151.17860 36 ft 4 kts 151°
2026-05-06 01:58 -33.96419 151.17884 36 ft 5 kts 131°
2026-05-06 01:58 -33.96435 151.17929 36 ft 7 kts 98°
2026-05-06 01:59 -33.96426 151.17993 36 ft 9 kts 77°
2026-05-06 01:59 -33.96392 151.18052 36 ft 9 kts 23°
2026-05-06 01:59 -33.96351 151.18044 36 ft 0 kts 346°
2026-05-06 01:59 -33.96340 151.18041 36 ft 15 kts 346°
2026-05-06 02:00 -33.95975 151.17945 34 ft 92 kts 348°
2026-05-06 02:00 -33.95121 151.17723 34 ft 158 kts 347°
2026-05-06 02:00 -33.93878 151.17400 161 ft 204 kts 346°
2026-05-06 02:00 -33.92459 151.17032 905 ft 208 kts 348°
2026-05-06 02:01 -33.90974 151.16640 1502 ft 234 kts 344°
2026-05-06 02:01 -33.89614 151.15546 1742 ft 250 kts 306°
2026-05-06 02:01 -33.88990 151.13604 2230 ft 252 kts 279°
2026-05-06 02:01 -33.88586 151.11532 2795 ft 256 kts 288°
2026-05-06 02:02 -33.87938 151.09531 3381 ft 258 kts 296°
2026-05-06 02:02 -33.87132 151.07603 3935 ft 259 kts 300°
2026-05-06 02:02 -33.86234 151.05710 4530 ft 260 kts 302°
2026-05-06 02:02 -33.85291 151.03848 5080 ft 262 kts 304°
2026-05-06 02:03 -33.84432 151.01903 5603 ft 267 kts 292°
2026-05-06 02:03 -33.83961 150.99732 6222 ft 269 kts 284°
2026-05-06 02:03 -33.83585 150.97531 6830 ft 269 kts 284°
2026-05-06 02:03 -33.83196 150.95323 7403 ft 271 kts 284°
2026-05-06 02:04 -33.82802 150.93124 7990 ft 273 kts 284°
2026-05-06 02:04 -33.82397 150.90889 8575 ft 275 kts 284°
2026-05-06 02:04 -33.81986 150.88634 9174 ft 277 kts 283°
2026-05-06 02:04 -33.81571 150.86366 9779 ft 279 kts 283°
2026-05-06 02:05 -33.81149 150.84068 10261 ft 286 kts 283°
2026-05-06 02:05 -33.80709 150.81673 10531 ft 300 kts 283°
2026-05-06 02:05 -33.80249 150.79168 10802 ft 313 kts 283°
2026-05-06 02:05 -33.79769 150.76563 11094 ft 325 kts 283°
2026-05-06 02:06 -33.79269 150.73859 11353 ft 337 kts 283°
2026-05-06 02:06 -33.78759 150.71096 11623 ft 349 kts 283°
2026-05-06 02:06 -33.78225 150.68213 11917 ft 359 kts 283°
2026-05-06 02:06 -33.77675 150.65241 12193 ft 369 kts 283°
2026-05-06 02:07 -33.77111 150.62200 12539 ft 376 kts 283°
2026-05-06 02:07 -33.76537 150.59112 13003 ft 379 kts 283°
2026-05-06 02:07 -33.75961 150.56018 13477 ft 381 kts 283°
2026-05-06 02:07 -33.75381 150.52902 13977 ft 384 kts 283°
2026-05-06 02:08 -33.74794 150.49757 14400 ft 386 kts 283°
2026-05-06 02:08 -33.74204 150.46599 14799 ft 389 kts 283°
2026-05-06 02:08 -33.73615 150.43454 15208 ft 392 kts 283°
2026-05-06 02:08 -33.73016 150.40259 15656 ft 394 kts 283°
2026-05-06 02:09 -33.72410 150.37034 16088 ft 397 kts 283°
2026-05-06 02:09 -33.71805 150.33794 16531 ft 399 kts 283°
2026-05-06 02:09 -33.71175 150.30534 16995 ft 401 kts 284°
2026-05-06 02:09 -33.70419 150.27306 17463 ft 404 kts 286°
2026-05-06 02:10 -33.69572 150.24080 17910 ft 407 kts 288°
2026-05-06 02:10 -33.68679 150.20843 18356 ft 409 kts 288°
2026-05-06 02:10 -33.67783 150.17642 18762 ft 411 kts 288°
2026-05-06 02:10 -33.66870 150.14375 19170 ft 413 kts 288°
2026-05-06 02:11 -33.65960 150.11095 19594 ft 415 kts 288°
2026-05-06 02:11 -33.65053 150.07803 19999 ft 417 kts 288°
2026-05-06 02:11 -33.64143 150.04486 20413 ft 419 kts 288°
2026-05-06 02:11 -33.63233 150.01159 20830 ft 421 kts 288°
2026-05-06 02:12 -33.81753 150.87362 9553 ft 276 kts 282°
2026-05-06 02:12 -33.81446 150.85671 10101 ft 277 kts 282°
2026-05-06 02:12 -33.81055 150.83397 10444 ft 288 kts 282°
2026-05-06 02:12 -33.80634 150.80992 10686 ft 301 kts 283°
2026-05-06 02:13 -33.80180 150.78471 10947 ft 315 kts 283°
2026-05-06 02:13 -33.79700 150.75849 11235 ft 327 kts 283°
2026-05-06 02:13 -33.79198 150.73134 11506 ft 340 kts 283°
2026-05-06 02:13 -33.78674 150.70310 11773 ft 351 kts 283°
2026-05-06 02:14 -33.78135 150.67414 12039 ft 362 kts 283°
2026-05-06 02:14 -33.77575 150.64411 12306 ft 372 kts 283°
2026-05-06 02:14 -33.77009 150.61402 12692 ft 377 kts 283°
2026-05-06 02:14 -33.76432 150.58317 13171 ft 379 kts 283°
2026-05-06 02:15 -33.75851 150.55219 13656 ft 382 kts 283°
2026-05-06 02:15 -33.75265 150.52097 14134 ft 384 kts 283°
2026-05-06 02:15 -33.74675 150.48957 14536 ft 387 kts 283°
2026-05-06 02:15 -33.74079 150.45794 14938 ft 390 kts 283°
2026-05-06 02:16 -33.73474 150.42591 15244 ft 392 kts 283°
2026-05-06 02:16 -33.72868 150.39393 15811 ft 395 kts 283°
2026-05-06 02:16 -33.72257 150.36165 16238 ft 397 kts 283°
2026-05-06 02:16 -33.71651 150.32965 16670 ft 400 kts 283°
2026-05-06 02:17 -33.70983 150.29674 17153 ft 402 kts 285°
2026-05-06 02:17 -33.70207 150.26483 17603 ft 404 kts 287°
2026-05-06 02:17 -33.69345 150.23250 18031 ft 407 kts 288°
2026-05-06 02:17 -33.68447 150.20014 18483 ft 410 kts 288°
2026-05-06 02:18 -33.67536 150.16759 18884 ft 412 kts 288°
2026-05-06 02:18 -33.66625 150.13491 19292 ft 414 kts 288°
2026-05-06 02:18 -33.65716 150.10209 19701 ft 416 kts 288°
2026-05-06 02:18 -33.64806 150.06901 20136 ft 418 kts 288°
2026-05-06 02:19 -33.63909 150.03630 20543 ft 420 kts 288°
2026-05-06 02:19 -33.62998 150.00299 20956 ft 422 kts 288°
2026-05-06 02:19 -33.62081 149.96951 21383 ft 424 kts 288°
2026-05-06 02:19 -33.61156 149.93571 21803 ft 426 kts 288°
2026-05-06 02:20 -33.59293 149.86784 22651 ft 432 kts 288°
2026-05-06 02:20 -33.58350 149.83358 23068 ft 434 kts 288°
2026-05-06 02:20 -33.57401 149.79916 23508 ft 436 kts 288°
2026-05-06 02:21 -33.56446 149.76454 23892 ft 438 kts 288°
2026-05-06 02:21 -33.55497 149.73018 24222 ft 441 kts 288°
2026-05-06 02:21 -33.54528 149.69515 24548 ft 444 kts 288°
2026-05-06 02:21 -33.53551 149.65991 24894 ft 446 kts 288°
2026-05-06 02:22 -33.52571 149.62457 25213 ft 449 kts 288°
2026-05-06 02:22 -33.51583 149.58898 25542 ft 452 kts 288°
2026-05-06 02:22 -33.50589 149.55322 25855 ft 454 kts 288°
2026-05-06 02:22 -33.49586 149.51720 26178 ft 457 kts 288°
2026-05-06 02:23 -33.48577 149.48102 26512 ft 459 kts 288°
2026-05-06 02:23 -33.47566 149.44479 26824 ft 461 kts 288°
2026-05-06 02:23 -33.46555 149.40863 27122 ft 463 kts 288°
2026-05-06 02:23 -33.45518 149.37156 27430 ft 466 kts 288°
2026-05-06 02:24 -33.44497 149.33511 27718 ft 468 kts 288°
2026-05-06 02:24 -33.43460 149.29814 28009 ft 470 kts 288°
2026-05-06 02:24 -33.42417 149.26101 28290 ft 472 kts 288°
2026-05-06 02:24 -33.41367 149.22366 28564 ft 474 kts 288°
2026-05-06 02:25 -33.40311 149.18619 28823 ft 476 kts 288°
2026-05-06 02:25 -33.39250 149.14855 29113 ft 478 kts 289°
2026-05-06 02:25 -33.38187 149.11091 29497 ft 477 kts 289°
2026-05-06 02:25 -33.37126 149.07337 29881 ft 476 kts 289°
2026-05-06 02:26 -33.36077 149.03633 30216 ft 476 kts 289°
2026-05-06 02:26 -33.35017 148.99893 30574 ft 473 kts 289°
2026-05-06 02:26 -33.33965 148.96184 30975 ft 470 kts 289°
2026-05-06 02:26 -33.32914 148.92487 31371 ft 467 kts 289°
2026-05-06 02:27 -33.31873 148.88830 31729 ft 465 kts 289°
2026-05-06 02:27 -33.30831 148.85172 32067 ft 463 kts 289°
2026-05-06 02:27 -33.29796 148.81546 32385 ft 461 kts 289°
2026-05-06 02:27 -33.28763 148.77929 32708 ft 459 kts 289°
2026-05-06 02:28 -33.27735 148.74335 33004 ft 457 kts 289°
2026-05-06 02:28 -33.26721 148.70794 33284 ft 455 kts 289°
2026-05-06 02:28 -33.25699 148.67227 33558 ft 453 kts 289°
2026-05-06 02:28 -33.24676 148.63666 33836 ft 452 kts 289°
2026-05-06 02:29 -33.23659 148.60126 34089 ft 450 kts 289°
2026-05-06 02:29 -33.21610 148.53010 34161 ft 457 kts 289°
2026-05-06 02:30 -33.19538 148.45832 34175 ft 457 kts 289°
2026-05-06 02:30 -33.17480 148.38720 34177 ft 455 kts 289°
2026-05-06 02:31 -33.15412 148.31589 34174 ft 455 kts 289°
2026-05-06 02:31 -33.13339 148.24459 34179 ft 455 kts 289°
2026-05-06 02:32 -33.11498 148.17243 34178 ft 455 kts 284°
2026-05-06 02:32 -33.10057 148.09949 34184 ft 455 kts 283°
2026-05-06 02:33 -33.08588 148.02609 34190 ft 455 kts 284°
2026-05-06 02:33 -33.08083 148.00180 34190 ft 455 kts 284°
2026-05-06 02:34 -33.05467 147.87996 34192 ft 454 kts 285°
2026-05-06 02:34 -33.03894 147.80755 34195 ft 454 kts 285°
2026-05-06 02:35 -33.02309 147.73466 34197 ft 454 kts 285°
2026-05-06 02:35 -33.00722 147.66182 34189 ft 454 kts 285°
2026-05-06 02:36 -32.99130 147.58896 34200 ft 454 kts 285°
2026-05-06 02:36 -32.97549 147.51680 34198 ft 454 kts 285°
2026-05-06 02:37 -32.95951 147.44408 34195 ft 454 kts 285°
2026-05-06 02:37 -32.94348 147.37137 34199 ft 454 kts 285°
2026-05-06 02:38 -32.92755 147.29934 34191 ft 452 kts 285°
2026-05-06 02:38 -32.91152 147.22707 34200 ft 452 kts 285°
2026-05-06 02:39 -32.89543 147.15474 34201 ft 452 kts 285°
2026-05-06 02:39 -32.87930 147.08240 34190 ft 452 kts 285°
2026-05-06 02:40 -32.86316 147.01028 34202 ft 451 kts 285°
2026-05-06 02:40 -32.84709 146.93868 34205 ft 451 kts 285°
2026-05-06 02:41 -32.83086 146.86653 34205 ft 451 kts 285°
2026-05-06 02:41 -32.81460 146.79453 34202 ft 451 kts 285°
2026-05-06 02:42 -32.79833 146.72266 34202 ft 450 kts 285°
2026-05-06 02:42 -32.78204 146.65089 34202 ft 450 kts 285°
2026-05-06 02:43 -32.76572 146.57918 34202 ft 450 kts 285°
2026-05-06 02:43 -32.74944 146.50790 34206 ft 450 kts 285°
2026-05-06 02:44 -32.73304 146.43628 34202 ft 450 kts 285°
2026-05-06 02:44 -32.71660 146.36467 34199 ft 450 kts 285°
2026-05-06 02:45 -32.70020 146.29345 34198 ft 449 kts 285°
2026-05-06 02:45 -32.68372 146.22208 34199 ft 448 kts 285°
2026-05-06 02:46 -32.66722 146.15085 34209 ft 447 kts 285°
2026-05-06 02:46 -32.65070 146.07970 34202 ft 447 kts 285°
2026-05-06 02:47 -32.63413 146.00858 34201 ft 447 kts 285°
2026-05-06 02:47 -32.61766 145.93800 34205 ft 447 kts 285°
2026-05-06 02:48 -32.60103 145.86701 34210 ft 447 kts 285°
2026-05-06 02:48 -32.58435 145.79599 34205 ft 447 kts 285°
2026-05-06 02:49 -32.56765 145.72506 34210 ft 446 kts 285°
2026-05-06 02:49 -32.55098 145.65445 34208 ft 445 kts 285°
2026-05-06 02:50 -32.53436 145.58428 34208 ft 445 kts 285°
2026-05-06 02:50 -32.51759 145.51362 34218 ft 447 kts 285°
2026-05-06 02:51 -32.50066 145.44248 34205 ft 449 kts 285°
2026-05-06 02:51 -32.48365 145.37123 34213 ft 449 kts 285°
2026-05-06 02:52 -32.46662 145.30007 34214 ft 449 kts 286°
2026-05-06 02:52 -32.44965 145.22940 34215 ft 449 kts 286°
2026-05-06 02:53 -32.43254 145.15828 34214 ft 449 kts 286°
2026-05-06 02:53 -32.41542 145.08736 34214 ft 449 kts 286°
2026-05-06 02:54 -32.39836 145.01684 34214 ft 449 kts 286°
2026-05-06 02:54 -32.38116 144.94594 34219 ft 448 kts 286°
2026-05-06 02:55 -32.36389 144.87496 34214 ft 449 kts 286°
2026-05-06 02:55 -32.34661 144.80413 34219 ft 449 kts 286°
2026-05-06 02:56 -32.32938 144.73367 34218 ft 449 kts 286°
2026-05-06 02:56 -32.31204 144.66296 34219 ft 448 kts 286°
2026-05-06 02:57 -32.29468 144.59238 34220 ft 447 kts 286°
2026-05-06 02:57 -32.27727 144.52173 34222 ft 447 kts 286°
2026-05-06 02:58 -32.25994 144.45165 34219 ft 447 kts 286°
2026-05-06 02:58 -32.24252 144.38133 34219 ft 446 kts 286°
2026-05-06 02:59 -32.22506 144.31106 34222 ft 446 kts 286°
2026-05-06 02:59 -32.20752 144.24068 34220 ft 446 kts 286°
2026-05-06 03:00 -32.19000 144.17050 34225 ft 445 kts 286°
2026-05-06 03:00 -32.17246 144.10047 34226 ft 445 kts 286°
2026-05-06 03:01 -32.15498 144.03086 34229 ft 445 kts 286°
2026-05-06 03:01 -32.13737 143.96091 34224 ft 445 kts 286°
2026-05-06 03:02 -32.11971 143.89092 34229 ft 445 kts 286°
2026-05-06 03:02 -32.10203 143.82102 34226 ft 445 kts 286°
2026-05-06 03:03 -32.08440 143.75155 34229 ft 445 kts 287°
2026-05-06 03:03 -32.06663 143.68167 34226 ft 445 kts 287°
2026-05-06 03:04 -32.04884 143.61190 34225 ft 445 kts 287°
2026-05-06 03:04 -32.03100 143.54206 34228 ft 445 kts 287°
2026-05-06 03:05 -32.01316 143.47244 34223 ft 444 kts 287°
2026-05-06 03:05 -31.99536 143.40320 34227 ft 444 kts 287°
2026-05-06 03:06 -31.97742 143.33360 34229 ft 444 kts 287°
2026-05-06 03:06 -31.95945 143.26403 34224 ft 444 kts 287°
2026-05-06 03:07 -31.94145 143.19451 34230 ft 444 kts 287°
2026-05-06 03:07 -31.92353 143.12547 34229 ft 444 kts 287°
2026-05-06 03:08 -31.90546 143.05602 34227 ft 444 kts 287°
2026-05-06 03:08 -31.88737 142.98669 34232 ft 444 kts 287°
2026-05-06 03:09 -31.86924 142.91733 34231 ft 444 kts 287°
2026-05-06 03:09 -31.85116 142.84836 34232 ft 444 kts 287°
2026-05-06 03:10 -31.83296 142.77913 34233 ft 444 kts 287°
2026-05-06 03:10 -31.81470 142.70982 34234 ft 444 kts 287°
2026-05-06 03:11 -31.79640 142.64052 34237 ft 443 kts 287°
2026-05-06 03:11 -31.77806 142.57125 34241 ft 445 kts 287°
2026-05-06 03:12 -31.75972 142.50213 34231 ft 447 kts 287°
2026-05-06 03:12 -31.74119 142.43249 34235 ft 446 kts 287°
2026-05-06 03:13 -31.72265 142.36296 34229 ft 446 kts 287°
2026-05-06 03:13 -31.70408 142.29350 34236 ft 446 kts 287°
2026-05-06 03:14 -31.68545 142.22398 34239 ft 447 kts 287°
2026-05-06 03:14 -31.66687 142.15481 34239 ft 447 kts 287°
2026-05-06 03:15 -31.64813 142.08521 34237 ft 447 kts 287°
2026-05-06 03:15 -31.62937 142.01571 34240 ft 447 kts 287°
2026-05-06 03:16 -31.61056 141.94619 34234 ft 447 kts 287°
2026-05-06 03:16 -31.59182 141.87710 34238 ft 447 kts 287°
2026-05-06 03:17 -31.57294 141.80768 34224 ft 447 kts 287°
2026-05-06 03:17 -31.55399 141.73812 34236 ft 447 kts 287°
2026-05-06 03:18 -31.53504 141.66876 34235 ft 447 kts 287°
2026-05-06 03:18 -31.51614 141.59973 34235 ft 447 kts 287°
2026-05-06 03:19 -31.49708 141.53032 34238 ft 447 kts 287°
2026-05-06 03:19 -31.47803 141.46108 34236 ft 447 kts 287°
2026-05-06 03:20 -31.44932 141.35704 34236 ft 447 kts 287°
2026-05-06 03:20 -31.43014 141.28774 34236 ft 448 kts 287°
2026-05-06 03:21 -31.41103 141.21884 34241 ft 448 kts 287°
2026-05-06 03:21 -31.39174 141.14947 34238 ft 448 kts 287°
2026-05-06 03:22 -31.37240 141.08007 34237 ft 448 kts 287°
2026-05-06 03:22 -31.35631 141.02247 34241 ft 448 kts 287°
2026-05-06 03:23 -31.33368 140.94193 34243 ft 448 kts 288°
2026-05-06 03:23 -31.31411 140.87271 34238 ft 448 kts 288°
2026-05-06 03:24 -31.29450 140.80353 34238 ft 449 kts 288°
2026-05-06 03:24 -31.27817 140.74597 34240 ft 449 kts 288°
2026-05-06 03:25 -31.25849 140.67678 34241 ft 449 kts 288°
2026-05-06 03:25 -31.23558 140.59639 34241 ft 449 kts 288°
2026-05-06 03:26 -31.21913 140.53883 34240 ft 449 kts 288°
2026-05-06 03:26 -31.19934 140.46969 34241 ft 449 kts 288°
2026-05-06 03:27 -31.17946 140.40040 34241 ft 449 kts 288°
2026-05-06 03:27 -31.15630 140.31991 34247 ft 450 kts 288°
2026-05-06 03:28 -31.13960 140.26198 34245 ft 450 kts 288°
2026-05-06 03:28 -31.11972 140.19315 34240 ft 450 kts 288°
2026-05-06 03:29 -31.09967 140.12393 34250 ft 451 kts 288°
2026-05-06 03:29 -31.07957 140.05466 34251 ft 451 kts 288°
2026-05-06 03:30 -31.05944 139.98546 34251 ft 451 kts 288°
2026-05-06 03:30 -31.03940 139.91673 34254 ft 451 kts 288°
2026-05-06 03:31 -31.01915 139.84742 34254 ft 451 kts 288°
2026-05-06 03:31 -30.99888 139.77820 34252 ft 452 kts 288°
2026-05-06 03:32 -30.97854 139.70890 34250 ft 452 kts 288°
2026-05-06 03:32 -30.95831 139.64012 34252 ft 452 kts 288°
2026-05-06 03:33 -30.93790 139.57091 34246 ft 452 kts 288°
2026-05-06 03:33 -30.91745 139.50169 34249 ft 452 kts 288°
2026-05-06 03:34 -30.89696 139.43250 34249 ft 452 kts 288°
2026-05-06 03:34 -30.87643 139.36333 34247 ft 452 kts 288°
2026-05-06 03:35 -30.85599 139.29461 34247 ft 452 kts 288°
2026-05-06 03:35 -30.83539 139.22551 34243 ft 452 kts 288°
2026-05-06 03:36 -30.81474 139.15643 34243 ft 452 kts 288°
2026-05-06 03:36 -30.79406 139.08737 34238 ft 452 kts 288°
2026-05-06 03:37 -30.77347 139.01874 34246 ft 452 kts 288°
2026-05-06 03:37 -30.75270 138.94967 34240 ft 452 kts 288°
2026-05-06 03:38 -30.73189 138.88066 34240 ft 452 kts 288°
2026-05-06 03:38 -30.71107 138.81173 34241 ft 453 kts 288°
2026-05-06 03:39 -30.69017 138.74265 34245 ft 453 kts 288°
2026-05-06 03:39 -30.66939 138.67417 34244 ft 453 kts 288°
2026-05-06 03:40 -30.64841 138.60518 34239 ft 453 kts 288°
2026-05-06 03:40 -30.62740 138.53619 34242 ft 453 kts 288°
2026-05-06 03:41 -30.60631 138.46714 34245 ft 453 kts 288°
2026-05-06 03:41 -30.58167 138.39980 34247 ft 454 kts 293°
2026-05-06 03:42 -30.55524 138.33367 34245 ft 455 kts 294°
2026-05-06 03:42 -30.52836 138.26724 34254 ft 455 kts 294°
2026-05-06 03:43 -30.50151 138.20092 34257 ft 455 kts 294°
2026-05-06 03:43 -30.47467 138.13458 34254 ft 455 kts 294°
2026-05-06 03:44 -30.44791 138.06852 34259 ft 455 kts 294°
2026-05-06 03:44 -30.42101 138.00221 34265 ft 455 kts 294°
2026-05-06 03:45 -30.39405 137.93590 34248 ft 455 kts 294°
2026-05-06 03:45 -30.36704 137.86958 34269 ft 455 kts 294°
2026-05-06 03:46 -30.33998 137.80326 34269 ft 455 kts 294°
2026-05-06 03:46 -30.31310 137.73749 34260 ft 456 kts 294°
2026-05-06 03:47 -30.28593 137.67113 34262 ft 456 kts 294°
2026-05-06 03:47 -30.25876 137.60491 34263 ft 456 kts 294°
2026-05-06 03:48 -30.23157 137.53874 34263 ft 456 kts 294°
2026-05-06 03:48 -30.20447 137.47289 34262 ft 456 kts 294°
2026-05-06 03:49 -30.17720 137.40676 34260 ft 456 kts 294°
2026-05-06 03:49 -30.14988 137.34062 34263 ft 456 kts 294°
2026-05-06 03:50 -30.12247 137.27441 34257 ft 456 kts 294°
2026-05-06 03:50 -30.09525 137.20874 34258 ft 457 kts 294°
2026-05-06 03:51 -30.06781 137.14268 34256 ft 456 kts 294°
2026-05-06 03:51 -30.04033 137.07661 34256 ft 456 kts 294°
2026-05-06 03:52 -30.01284 137.01066 34257 ft 456 kts 294°
2026-05-06 03:52 -29.98544 136.94502 34260 ft 457 kts 294°
2026-05-06 03:53 -29.95786 136.87907 34257 ft 457 kts 294°
2026-05-06 03:53 -29.93022 136.81310 34257 ft 457 kts 294°
2026-05-06 03:54 -29.90252 136.74711 34259 ft 457 kts 294°
2026-05-06 03:54 -29.87480 136.68118 34260 ft 457 kts 294°
2026-05-06 03:55 -29.84724 136.61573 34263 ft 457 kts 294°
2026-05-06 03:55 -29.81943 136.54980 34258 ft 457 kts 294°
2026-05-06 03:56 -29.79156 136.48385 34265 ft 458 kts 294°
2026-05-06 03:56 -29.76367 136.41798 34264 ft 458 kts 294°
2026-05-06 03:57 -29.73592 136.35253 34261 ft 458 kts 294°
2026-05-06 03:57 -29.70794 136.28665 34267 ft 458 kts 294°
2026-05-06 03:58 -29.67995 136.22092 34264 ft 458 kts 294°
2026-05-06 03:58 -29.65175 136.15510 34262 ft 458 kts 294°
2026-05-06 03:59 -29.62368 136.08983 34266 ft 459 kts 294°
2026-05-06 03:59 -29.59540 136.02414 34266 ft 459 kts 294°
2026-05-06 04:00 -29.56708 135.95841 34264 ft 459 kts 294°
2026-05-06 04:00 -29.53870 135.89267 34272 ft 459 kts 295°
2026-05-06 04:01 -29.51046 135.82737 34272 ft 460 kts 295°
2026-05-06 04:01 -29.48202 135.76171 34268 ft 460 kts 295°
2026-05-06 04:02 -29.45348 135.69595 34277 ft 460 kts 295°
2026-05-06 04:02 -29.42493 135.63025 34278 ft 460 kts 295°
2026-05-06 04:03 -29.39654 135.56505 34271 ft 460 kts 295°
2026-05-06 04:03 -29.36788 135.49933 34276 ft 461 kts 295°
2026-05-06 04:04 -29.33926 135.43380 34276 ft 461 kts 295°
2026-05-06 04:04 -29.31051 135.36811 34275 ft 461 kts 295°
2026-05-06 04:05 -29.28193 135.30290 34279 ft 461 kts 295°
2026-05-06 04:05 -29.25314 135.23733 34279 ft 461 kts 295°
2026-05-06 04:06 -29.22431 135.17176 34276 ft 461 kts 295°
2026-05-06 04:06 -29.19540 135.10613 34279 ft 461 kts 295°
2026-05-06 04:07 -29.16651 135.04066 34276 ft 461 kts 295°
2026-05-06 04:07 -29.13778 134.97566 34281 ft 461 kts 295°
2026-05-06 04:08 -29.10875 134.91009 34276 ft 462 kts 295°
2026-05-06 04:08 -29.07969 134.84456 34281 ft 462 kts 295°
2026-05-06 04:09 -29.05061 134.77908 34282 ft 462 kts 295°
2026-05-06 04:09 -29.02170 134.71411 34282 ft 462 kts 295°
2026-05-06 04:10 -28.99256 134.64871 34280 ft 462 kts 295°
2026-05-06 04:10 -28.96334 134.58325 34286 ft 462 kts 295°
2026-05-06 04:11 -28.93429 134.51831 34284 ft 463 kts 295°
2026-05-06 04:11 -28.90499 134.45288 34284 ft 463 kts 295°
2026-05-06 04:12 -28.87565 134.38749 34288 ft 463 kts 295°
2026-05-06 04:12 -28.84633 134.32226 34287 ft 463 kts 295°
2026-05-06 04:13 -28.81691 134.25690 34287 ft 463 kts 295°
2026-05-06 04:13 -28.78764 134.19199 34283 ft 463 kts 295°
2026-05-06 04:14 -28.75816 134.12671 34288 ft 463 kts 295°
2026-05-06 04:14 -28.72867 134.06151 34290 ft 463 kts 295°
2026-05-06 04:15 -28.69914 133.99634 34290 ft 463 kts 295°
2026-05-06 04:15 -28.66974 133.93156 34291 ft 463 kts 296°
2026-05-06 04:16 -28.64012 133.86639 34293 ft 463 kts 296°
2026-05-06 04:16 -28.61050 133.80134 34292 ft 463 kts 296°
2026-05-06 04:17 -28.58079 133.73620 34299 ft 464 kts 296°
2026-05-06 04:17 -28.55106 133.67111 34295 ft 463 kts 296°
2026-05-06 04:18 -28.52151 133.60653 34295 ft 463 kts 296°
2026-05-06 04:18 -28.49172 133.54150 34298 ft 464 kts 296°
2026-05-06 04:19 -28.46194 133.47662 34298 ft 464 kts 296°
2026-05-06 04:19 -28.43205 133.41162 34298 ft 464 kts 296°
2026-05-06 04:20 -28.40237 133.34715 34297 ft 464 kts 296°
2026-05-06 04:20 -28.37248 133.28234 34298 ft 464 kts 296°
2026-05-06 04:21 -28.34249 133.21740 34303 ft 464 kts 296°
2026-05-06 04:21 -28.31247 133.15253 34300 ft 464 kts 296°
2026-05-06 04:22 -28.28271 133.08829 34300 ft 464 kts 296°
2026-05-06 04:23 -28.23754 132.99101 34297 ft 464 kts 296°
2026-05-06 04:23 -28.20742 132.92626 34295 ft 465 kts 296°
2026-05-06 04:24 -28.17739 132.86180 34296 ft 465 kts 296°
2026-05-06 04:24 -28.14719 132.79709 34299 ft 465 kts 296°
2026-05-06 04:25 -28.11695 132.73239 34301 ft 465 kts 296°
2026-05-06 04:25 -28.08667 132.66771 34300 ft 465 kts 296°
2026-05-06 04:26 -28.05637 132.60309 34304 ft 465 kts 296°
2026-05-06 04:26 -28.02621 132.53886 34297 ft 465 kts 296°
2026-05-06 04:27 -27.99583 132.47426 34297 ft 465 kts 296°
2026-05-06 04:27 -27.96540 132.40967 34296 ft 465 kts 296°
2026-05-06 04:28 -27.93512 132.34549 34300 ft 465 kts 296°
2026-05-06 04:28 -27.90464 132.28098 34300 ft 465 kts 296°
2026-05-06 04:29 -27.87410 132.21644 34299 ft 465 kts 296°
2026-05-06 04:29 -27.84352 132.15193 34291 ft 466 kts 296°
2026-05-06 04:30 -27.81289 132.08742 34290 ft 466 kts 296°
2026-05-06 04:30 -27.78245 132.02339 34310 ft 466 kts 296°
2026-05-06 04:31 -27.75175 131.95891 34298 ft 466 kts 296°
2026-05-06 04:31 -27.72106 131.89456 34406 ft 465 kts 296°
2026-05-06 04:31 -27.70573 131.86255 34691 ft 462 kts 296°
2026-05-06 04:32 -27.69070 131.83117 34991 ft 459 kts 296°
2026-05-06 04:32 -27.67560 131.79959 35233 ft 457 kts 296°
2026-05-06 04:32 -27.66054 131.76810 35448 ft 455 kts 296°
2026-05-06 04:32 -27.64550 131.73666 35676 ft 453 kts 296°
2026-05-06 04:33 -27.63057 131.70548 35862 ft 452 kts 297°
2026-05-06 04:33 -27.61564 131.67433 36041 ft 451 kts 297°
2026-05-06 04:33 -27.60067 131.64313 36161 ft 451 kts 297°
2026-05-06 04:34 -27.57070 131.58076 36296 ft 454 kts 297°
2026-05-06 04:34 -27.54060 131.51822 36293 ft 459 kts 297°
2026-05-06 04:35 -27.51021 131.45520 36296 ft 457 kts 297°
2026-05-06 04:35 -27.47984 131.39229 36280 ft 457 kts 297°
2026-05-06 04:36 -27.44940 131.32934 36292 ft 458 kts 297°
2026-05-06 04:36 -27.41890 131.26635 36292 ft 458 kts 297°
2026-05-06 04:37 -27.38860 131.20386 36295 ft 458 kts 297°
2026-05-06 04:37 -27.35803 131.14090 36291 ft 458 kts 297°
2026-05-06 04:38 -27.32745 131.07801 36288 ft 458 kts 297°
2026-05-06 04:38 -27.29681 131.01511 36288 ft 459 kts 297°
2026-05-06 04:39 -27.26615 130.95225 36294 ft 459 kts 297°
2026-05-06 04:39 -27.23560 130.88973 36296 ft 458 kts 297°
2026-05-06 04:40 -27.20501 130.82720 36298 ft 457 kts 297°
2026-05-06 04:40 -27.17434 130.76459 36290 ft 457 kts 297°
2026-05-06 04:41 -27.14365 130.70203 36285 ft 458 kts 297°
2026-05-06 04:41 -27.11310 130.63985 36305 ft 458 kts 297°
2026-05-06 04:42 -27.08231 130.57727 36272 ft 458 kts 297°
2026-05-06 04:42 -27.05148 130.51471 36289 ft 459 kts 297°
2026-05-06 04:43 -27.02057 130.45208 36290 ft 459 kts 297°
2026-05-06 04:43 -26.98981 130.38983 36296 ft 459 kts 297°
2026-05-06 04:44 -26.95887 130.32731 36286 ft 459 kts 297°
2026-05-06 04:44 -26.92788 130.26478 36288 ft 459 kts 297°
2026-05-06 04:45 -26.89683 130.20222 36287 ft 460 kts 297°
2026-05-06 04:45 -26.86577 130.13973 36289 ft 459 kts 297°
2026-05-06 04:46 -26.83486 130.07765 36282 ft 459 kts 297°
2026-05-06 04:46 -26.80371 130.01515 36295 ft 459 kts 297°
2026-05-06 04:47 -26.77263 129.95288 36284 ft 459 kts 297°
2026-05-06 04:47 -26.74150 129.89060 36286 ft 459 kts 297°
2026-05-06 04:48 -26.71056 129.82879 36274 ft 459 kts 297°
2026-05-06 04:48 -26.67934 129.76653 36284 ft 458 kts 297°
2026-05-06 04:49 -26.64814 129.70437 36274 ft 459 kts 297°
2026-05-06 04:49 -26.61689 129.64221 36281 ft 459 kts 297°
2026-05-06 04:50 -26.58581 129.58047 36274 ft 459 kts 297°
2026-05-06 04:50 -26.55444 129.51825 36275 ft 459 kts 297°
2026-05-06 04:51 -26.52313 129.45625 36270 ft 459 kts 297°
2026-05-06 04:51 -26.49174 129.39415 36274 ft 459 kts 297°
2026-05-06 04:52 -26.46034 129.33213 36264 ft 459 kts 297°
2026-05-06 04:52 -26.42913 129.27056 36269 ft 459 kts 297°
2026-05-06 04:53 -26.39769 129.20864 36274 ft 459 kts 297°
2026-05-06 04:53 -26.36622 129.14672 36266 ft 459 kts 297°
2026-05-06 04:54 -26.33467 129.08476 36273 ft 459 kts 297°
2026-05-06 04:54 -26.30338 129.02338 36264 ft 459 kts 297°
2026-05-06 04:55 -26.27184 128.96158 36273 ft 459 kts 297°
2026-05-06 04:55 -26.24019 128.89981 36268 ft 459 kts 297°
2026-05-06 04:56 -26.20878 128.83845 36261 ft 459 kts 297°
2026-05-06 04:56 -26.17721 128.77683 36260 ft 459 kts 297°
2026-05-06 04:57 -26.14554 128.71512 36254 ft 459 kts 297°
2026-05-06 04:57 -26.11385 128.65349 36260 ft 459 kts 297°
2026-05-06 04:58 -26.08211 128.59185 36248 ft 459 kts 297°
2026-05-06 04:58 -26.05065 128.53085 36258 ft 459 kts 297°
2026-05-06 04:59 -26.01888 128.46931 36249 ft 459 kts 297°
2026-05-06 04:59 -25.98710 128.40784 36248 ft 459 kts 297°
2026-05-06 05:00 -25.95528 128.34638 36251 ft 459 kts 297°
2026-05-06 05:00 -25.92347 128.28503 36245 ft 458 kts 297°
2026-05-06 05:01 -25.89183 128.22407 36250 ft 458 kts 297°
2026-05-06 05:01 -25.85995 128.16276 36246 ft 458 kts 297°
2026-05-06 05:02 -25.82806 128.10148 36242 ft 458 kts 297°
2026-05-06 05:02 -25.79614 128.04024 36246 ft 458 kts 297°
2026-05-06 05:03 -25.76446 127.97955 36237 ft 458 kts 297°
2026-05-06 05:03 -25.73247 127.91833 36238 ft 458 kts 297°
2026-05-06 05:04 -25.70052 127.85727 36235 ft 458 kts 298°
2026-05-06 05:04 -25.66850 127.79616 36236 ft 458 kts 298°
2026-05-06 05:05 -25.63647 127.73512 36236 ft 458 kts 298°
2026-05-06 05:05 -25.60461 127.67450 36224 ft 458 kts 298°
2026-05-06 05:06 -25.57258 127.61362 36242 ft 458 kts 298°
2026-05-06 05:06 -25.54053 127.55277 36223 ft 458 kts 298°
2026-05-06 05:07 -25.50841 127.49188 36220 ft 458 kts 298°
2026-05-06 05:07 -25.47650 127.43147 36224 ft 458 kts 298°
2026-05-06 05:08 -25.44434 127.37066 36218 ft 457 kts 298°
2026-05-06 05:08 -25.41222 127.31001 36221 ft 457 kts 298°
2026-05-06 05:09 -25.38005 127.24934 36222 ft 457 kts 298°
2026-05-06 05:09 -25.34789 127.18877 36222 ft 457 kts 298°
2026-05-06 05:10 -25.31588 127.12855 36218 ft 457 kts 298°
2026-05-06 05:10 -25.28363 127.06798 36217 ft 457 kts 298°
2026-05-06 05:11 -25.25136 127.00743 36202 ft 457 kts 298°
2026-05-06 05:11 -25.21905 126.94690 36213 ft 457 kts 298°
2026-05-06 05:12 -25.18698 126.88688 36198 ft 457 kts 298°
2026-05-06 05:12 -25.15463 126.82643 36202 ft 457 kts 298°
2026-05-06 05:13 -25.12226 126.76602 36206 ft 457 kts 298°
2026-05-06 05:13 -25.08993 126.70576 36210 ft 456 kts 298°
2026-05-06 05:14 -25.05760 126.64557 36197 ft 456 kts 298°
2026-05-06 05:14 -25.02539 126.58568 36200 ft 456 kts 298°
2026-05-06 05:15 -24.99298 126.52550 36201 ft 456 kts 298°
2026-05-06 05:15 -24.96061 126.46548 36198 ft 456 kts 297°
2026-05-06 05:16 -24.92818 126.40541 36196 ft 456 kts 298°
2026-05-06 05:16 -24.89600 126.34587 36195 ft 456 kts 298°
2026-05-06 05:17 -24.86358 126.28597 36194 ft 456 kts 298°
2026-05-06 05:17 -24.83110 126.22606 36190 ft 455 kts 298°
2026-05-06 05:18 -24.79865 126.16626 36188 ft 455 kts 297°
2026-05-06 05:18 -24.76623 126.10658 36189 ft 454 kts 297°
2026-05-06 05:19 -24.73402 126.04736 36184 ft 454 kts 297°
2026-05-06 05:19 -24.70156 125.98777 36184 ft 454 kts 297°
2026-05-06 05:20 -24.66909 125.92822 36183 ft 454 kts 297°
2026-05-06 05:20 -24.63661 125.86876 36181 ft 453 kts 297°
2026-05-06 05:21 -24.60443 125.80992 36181 ft 451 kts 297°
2026-05-06 05:21 -24.57213 125.75088 36189 ft 451 kts 297°
2026-05-06 05:22 -24.53974 125.69176 36176 ft 452 kts 297°
2026-05-06 05:22 -24.50725 125.63255 36176 ft 452 kts 297°
2026-05-06 05:23 -24.47498 125.57383 36161 ft 452 kts 297°
2026-05-06 05:23 -24.42644 125.48563 36173 ft 450 kts 297°
2026-05-06 05:24 -24.39406 125.42685 36168 ft 450 kts 297°
2026-05-06 05:24 -24.36163 125.36806 36167 ft 450 kts 297°
2026-05-06 05:25 -24.32944 125.30980 36161 ft 450 kts 297°
2026-05-06 05:25 -24.29703 125.25121 36159 ft 450 kts 297°
2026-05-06 05:26 -24.26459 125.19263 36156 ft 448 kts 297°
2026-05-06 05:26 -24.23221 125.13421 36159 ft 448 kts 297°
2026-05-06 05:27 -24.20003 125.07624 36154 ft 448 kts 297°
2026-05-06 05:27 -24.16764 125.01794 36153 ft 448 kts 297°
2026-05-06 05:28 -24.13519 124.95962 36156 ft 449 kts 297°
2026-05-06 05:28 -24.10271 124.90132 36148 ft 448 kts 297°
2026-05-06 05:29 -24.07031 124.84323 36146 ft 447 kts 297°
2026-05-06 05:29 -24.03815 124.78562 36139 ft 447 kts 297°
2026-05-06 05:30 -24.00576 124.72767 36143 ft 447 kts 297°
2026-05-06 05:30 -23.97333 124.66972 36141 ft 447 kts 297°
2026-05-06 05:31 -23.94082 124.61171 36132 ft 447 kts 297°
2026-05-06 05:31 -23.90837 124.55388 36137 ft 446 kts 297°
2026-05-06 05:32 -23.87617 124.49655 36132 ft 446 kts 297°
2026-05-06 05:32 -23.84369 124.43877 36129 ft 446 kts 297°
2026-05-06 05:33 -23.81116 124.38098 36130 ft 447 kts 297°
2026-05-06 05:33 -23.77861 124.32322 36126 ft 447 kts 297°
2026-05-06 05:34 -23.74629 124.26597 36120 ft 445 kts 297°
2026-05-06 05:34 -23.71382 124.20851 36128 ft 444 kts 297°
2026-05-06 05:35 -23.68141 124.15119 36122 ft 445 kts 297°
2026-05-06 05:35 -23.64887 124.09370 36119 ft 445 kts 297°
2026-05-06 05:36 -23.61654 124.03665 36114 ft 445 kts 297°
2026-05-06 05:36 -23.58398 123.97929 36116 ft 445 kts 297°
2026-05-06 05:37 -23.55140 123.92194 36107 ft 445 kts 297°
2026-05-06 05:37 -23.51879 123.86462 36108 ft 445 kts 297°
2026-05-06 05:38 -23.48612 123.80727 36111 ft 445 kts 297°
2026-05-06 05:38 -23.45362 123.75027 36102 ft 445 kts 297°
2026-05-06 05:39 -23.42096 123.69307 36099 ft 445 kts 297°
2026-05-06 05:39 -23.38823 123.63580 36091 ft 445 kts 297°
2026-05-06 05:40 -23.35548 123.57857 36097 ft 444 kts 297°
2026-05-06 05:40 -23.32306 123.52198 36091 ft 444 kts 297°
2026-05-06 05:41 -23.29037 123.46498 36092 ft 444 kts 297°
2026-05-06 05:41 -23.25761 123.40791 36091 ft 444 kts 297°
2026-05-06 05:42 -23.22490 123.35100 36086 ft 444 kts 297°
2026-05-06 05:42 -23.19239 123.29452 36082 ft 443 kts 297°
2026-05-06 05:43 -23.15979 123.23795 36081 ft 441 kts 297°
2026-05-06 05:43 -23.12725 123.18150 36080 ft 441 kts 297°
2026-05-06 05:44 -23.09465 123.12503 36077 ft 442 kts 297°
2026-05-06 05:44 -23.06218 123.06883 36076 ft 443 kts 297°
2026-05-06 05:45 -23.02941 123.01219 36074 ft 443 kts 297°
2026-05-06 05:45 -22.99672 122.95579 36070 ft 441 kts 296°
2026-05-06 05:46 -22.96409 122.89955 36073 ft 439 kts 296°
2026-05-06 05:46 -22.93159 122.84354 36071 ft 440 kts 296°
2026-05-06 05:47 -22.89916 122.78770 36070 ft 440 kts 296°
2026-05-06 05:47 -22.86651 122.73157 36069 ft 440 kts 297°
2026-05-06 05:48 -22.83381 122.67544 36064 ft 440 kts 297°
2026-05-06 05:48 -22.80134 122.61977 36070 ft 439 kts 296°
2026-05-06 05:49 -22.76876 122.56396 36060 ft 438 kts 296°
2026-05-06 05:49 -22.73615 122.50813 36045 ft 438 kts 296°
2026-05-06 05:50 -22.70357 122.45241 36058 ft 438 kts 296°
2026-05-06 05:50 -22.67094 122.39668 36058 ft 438 kts 296°
2026-05-06 05:51 -22.63850 122.34133 36049 ft 438 kts 296°
2026-05-06 05:51 -22.60583 122.28566 36043 ft 438 kts 296°
2026-05-06 05:52 -22.57321 122.23015 36052 ft 437 kts 296°
2026-05-06 05:52 -22.54064 122.17475 36042 ft 437 kts 296°
2026-05-06 05:53 -22.50823 122.11967 36043 ft 437 kts 296°
2026-05-06 05:53 -22.47560 122.06430 36050 ft 437 kts 296°
2026-05-06 05:54 -22.44294 122.00894 36042 ft 437 kts 296°
2026-05-06 05:54 -22.41025 121.95358 36037 ft 436 kts 296°
2026-05-06 05:55 -22.37782 121.89873 36035 ft 435 kts 296°
2026-05-06 05:55 -22.34527 121.84374 36034 ft 435 kts 296°
2026-05-06 05:56 -22.31272 121.78882 36030 ft 435 kts 296°
2026-05-06 05:56 -22.28007 121.73383 36028 ft 435 kts 296°
2026-05-06 05:57 -22.24736 121.67879 36026 ft 435 kts 296°
2026-05-06 05:57 -22.21485 121.62417 36012 ft 434 kts 296°
2026-05-06 05:58 -22.18228 121.56950 36021 ft 432 kts 296°
2026-05-06 05:58 -22.14981 121.51504 36022 ft 432 kts 296°
2026-05-06 05:59 -22.11724 121.46043 36023 ft 433 kts 296°
2026-05-06 05:59 -22.08482 121.40614 36021 ft 434 kts 296°
2026-05-06 06:00 -22.05214 121.35152 36013 ft 433 kts 296°
2026-05-06 06:00 -22.02500 121.30618 36011 ft 433 kts 296°
2026-05-06 06:01 -21.99236 121.25171 36006 ft 431 kts 296°
2026-05-06 06:01 -21.95466 121.18887 36008 ft 430 kts 296°
2026-05-06 06:02 -21.92745 121.14351 36007 ft 430 kts 296°
2026-05-06 06:02 -21.89515 121.08974 36002 ft 430 kts 296°
2026-05-06 06:03 -21.85710 121.02650 36002 ft 430 kts 296°
2026-05-06 06:03 -21.82483 120.97291 36000 ft 430 kts 296°
2026-05-06 06:04 -21.79220 120.91878 35995 ft 430 kts 296°
2026-05-06 06:04 -21.76523 120.87411 35997 ft 428 kts 296°
2026-05-06 06:05 -21.73281 120.82041 36000 ft 428 kts 296°
2026-05-06 06:05 -21.70039 120.76676 35999 ft 428 kts 296°
2026-05-06 06:06 -21.66263 120.70436 35996 ft 428 kts 296°
2026-05-06 06:06 -21.63539 120.65938 35992 ft 428 kts 296°
2026-05-06 06:07 -21.60308 120.60610 35992 ft 428 kts 296°
2026-05-06 06:07 -21.57059 120.55256 35993 ft 428 kts 296°
2026-05-06 06:08 -21.53799 120.49890 35985 ft 428 kts 296°
2026-05-06 06:08 -21.50543 120.44535 35982 ft 428 kts 296°
2026-05-06 06:09 -21.47310 120.39222 35996 ft 428 kts 296°
2026-05-06 06:09 -21.44047 120.33865 35980 ft 429 kts 296°
2026-05-06 06:10 -21.40773 120.28497 35985 ft 429 kts 296°
2026-05-06 06:10 -21.37500 120.23139 35961 ft 429 kts 296°
2026-05-06 06:11 -21.34242 120.17808 35974 ft 427 kts 296°
2026-05-06 06:11 -21.31006 120.12516 35975 ft 426 kts 296°
2026-05-06 06:12 -21.27752 120.07198 35968 ft 427 kts 296°
2026-05-06 06:12 -21.24498 120.01887 35966 ft 427 kts 296°
2026-05-06 06:13 -21.21256 119.96600 35963 ft 427 kts 296°
2026-05-06 06:13 -21.17994 119.91287 35961 ft 427 kts 296°
2026-05-06 06:14 -21.14733 119.85981 35951 ft 426 kts 296°
2026-05-06 06:14 -21.11472 119.80682 35959 ft 426 kts 296°
2026-05-06 06:15 -21.08215 119.75390 35963 ft 426 kts 296°
2026-05-06 06:15 -21.04969 119.70121 35952 ft 426 kts 296°
2026-05-06 06:16 -21.01703 119.64826 35943 ft 427 kts 296°
2026-05-06 06:16 -20.98435 119.59533 35945 ft 427 kts 296°
2026-05-06 06:17 -20.95164 119.54239 35947 ft 426 kts 296°
2026-05-06 06:17 -20.91889 119.48946 35945 ft 426 kts 295°
2026-05-06 06:18 -20.88639 119.43698 35945 ft 426 kts 295°
2026-05-06 06:18 -20.85368 119.38419 35939 ft 426 kts 295°
2026-05-06 06:19 -20.82092 119.33138 35942 ft 426 kts 295°
2026-05-06 06:19 -20.78818 119.27864 35941 ft 426 kts 296°
2026-05-06 06:20 -20.75566 119.22632 35936 ft 426 kts 295°
2026-05-06 06:20 -20.72283 119.17351 35892 ft 426 kts 295°
2026-05-06 06:21 -20.69001 119.12081 35939 ft 426 kts 295°
2026-05-06 06:21 -20.65718 119.06814 35934 ft 426 kts 295°
2026-05-06 06:22 -20.62464 119.01596 35933 ft 426 kts 295°
2026-05-06 06:22 -20.59181 118.96337 35935 ft 426 kts 295°
2026-05-06 06:23 -20.55892 118.91074 35935 ft 426 kts 295°
2026-05-06 06:23 -20.52604 118.85816 35935 ft 426 kts 295°
2026-05-06 06:24 -20.49334 118.80592 35900 ft 426 kts 295°
2026-05-06 06:24 -20.46040 118.75336 35933 ft 426 kts 295°
2026-05-06 06:25 -20.42749 118.70089 35933 ft 426 kts 295°
2026-05-06 06:26 -20.37805 118.62214 35966 ft 426 kts 295°
2026-05-06 06:26 -20.34756 118.56889 35966 ft 421 kts 291°
2026-05-06 06:27 -20.31950 118.51409 35963 ft 421 kts 291°
2026-05-06 06:27 -20.29124 118.45953 35956 ft 422 kts 291°
2026-05-06 06:28 -20.26238 118.40511 35950 ft 422 kts 292°
2026-05-06 06:28 -20.23345 118.35107 35947 ft 423 kts 292°
2026-05-06 06:29 -20.20429 118.29670 35941 ft 423 kts 292°
2026-05-06 06:29 -20.17508 118.24224 35945 ft 423 kts 292°
2026-05-06 06:30 -20.14589 118.18783 35947 ft 423 kts 292°
2026-05-06 06:30 -20.11683 118.13372 35948 ft 423 kts 292°
2026-05-06 06:31 -20.08762 118.07937 35949 ft 423 kts 292°
2026-05-06 06:31 -20.05837 118.02499 35947 ft 424 kts 292°
2026-05-06 06:32 -20.02907 117.97057 35957 ft 425 kts 292°
2026-05-06 06:32 -19.99977 117.91619 35941 ft 426 kts 292°
2026-05-06 06:33 -19.97029 117.86156 35958 ft 426 kts 292°
2026-05-06 06:33 -19.94077 117.80692 35963 ft 426 kts 292°
2026-05-06 06:34 -19.91122 117.75225 35944 ft 426 kts 292°
2026-05-06 06:34 -19.88171 117.69770 35961 ft 426 kts 292°
2026-05-06 06:35 -19.85233 117.64345 35961 ft 426 kts 292°
2026-05-06 06:35 -19.82272 117.58882 35949 ft 426 kts 292°
2026-05-06 06:36 -19.79310 117.53421 35960 ft 428 kts 292°
2026-05-06 06:36 -19.76349 117.47967 35959 ft 429 kts 292°
2026-05-06 06:37 -19.73368 117.42485 35957 ft 430 kts 292°
2026-05-06 06:37 -19.70375 117.36985 35957 ft 430 kts 292°
2026-05-06 06:38 -19.67387 117.31498 35958 ft 430 kts 292°
2026-05-06 06:38 -19.64390 117.26001 35957 ft 430 kts 292°
2026-05-06 06:39 -19.61420 117.20558 35961 ft 430 kts 292°
2026-05-06 06:39 -19.58425 117.15073 35944 ft 430 kts 292°
2026-05-06 06:40 -19.55418 117.09570 35959 ft 432 kts 292°
2026-05-06 06:40 -19.52399 117.04050 35959 ft 433 kts 292°
2026-05-06 06:41 -19.49398 116.98572 35960 ft 433 kts 292°
2026-05-06 06:41 -19.46373 116.93055 35959 ft 433 kts 292°
2026-05-06 06:42 -19.43352 116.87548 35958 ft 433 kts 292°
2026-05-06 06:42 -19.40322 116.82030 35966 ft 433 kts 292°
2026-05-06 06:43 -19.37292 116.76517 35967 ft 433 kts 292°
2026-05-06 06:43 -19.34279 116.71042 35962 ft 433 kts 292°
2026-05-06 06:44 -19.31244 116.65530 35961 ft 433 kts 292°
2026-05-06 06:44 -19.28204 116.60014 35959 ft 433 kts 292°
2026-05-06 06:45 -19.25165 116.54506 35958 ft 433 kts 292°
2026-05-06 06:45 -19.22144 116.49033 35964 ft 434 kts 292°
2026-05-06 06:46 -19.19100 116.43526 35963 ft 434 kts 292°
2026-05-06 06:46 -19.16053 116.38018 35966 ft 434 kts 292°
2026-05-06 06:47 -19.13009 116.32520 35962 ft 434 kts 292°
2026-05-06 06:47 -19.09972 116.27046 35963 ft 435 kts 293°
2026-05-06 06:48 -19.06908 116.21525 35963 ft 436 kts 293°
2026-05-06 06:48 -19.03833 116.15992 35964 ft 436 kts 293°
2026-05-06 06:49 -19.00758 116.10465 35964 ft 436 kts 293°
2026-05-06 06:49 -18.97678 116.04932 35964 ft 436 kts 293°
2026-05-06 06:50 -18.94621 115.99447 35964 ft 436 kts 293°
2026-05-06 06:50 -18.91543 115.93928 35954 ft 436 kts 293°
2026-05-06 06:51 -18.88456 115.88397 35963 ft 437 kts 293°
2026-05-06 06:51 -18.85386 115.82903 35968 ft 439 kts 293°
2026-05-06 06:52 -18.82278 115.77344 35955 ft 440 kts 293°
2026-05-06 06:52 -18.79171 115.71795 35966 ft 440 kts 293°
2026-05-06 06:53 -18.76054 115.66233 35960 ft 440 kts 293°
2026-05-06 06:53 -18.72944 115.60688 35957 ft 440 kts 293°
2026-05-06 06:54 -18.69825 115.55131 35967 ft 440 kts 293°
2026-05-06 06:54 -18.66734 115.49628 35963 ft 439 kts 293°
2026-05-06 06:55 -18.63614 115.44079 35960 ft 439 kts 293°
2026-05-06 06:55 -18.60496 115.38536 35958 ft 442 kts 294°
2026-05-06 06:56 -18.57348 115.32944 35955 ft 444 kts 294°
2026-05-06 06:56 -18.54213 115.27387 35957 ft 444 kts 294°
2026-05-06 06:57 -18.51058 115.21798 35961 ft 444 kts 294°
2026-05-06 06:57 -18.47902 115.16210 35960 ft 444 kts 294°
2026-05-06 06:58 -18.44746 115.10627 35962 ft 444 kts 294°
2026-05-06 06:58 -18.41587 115.05043 35958 ft 444 kts 294°
2026-05-06 06:59 -18.38448 114.99500 35956 ft 444 kts 294°
2026-05-06 06:59 -18.35282 114.93913 35959 ft 445 kts 294°
2026-05-06 07:00 -18.32109 114.88317 35960 ft 446 kts 294°
2026-05-06 07:00 -18.28926 114.82713 35961 ft 446 kts 294°
2026-05-06 07:01 -18.25768 114.77157 35959 ft 446 kts 294°
2026-05-06 07:01 -18.22584 114.71558 35952 ft 446 kts 294°
2026-05-06 07:02 -18.19400 114.65966 35952 ft 446 kts 294°
2026-05-06 07:02 -18.16210 114.60366 35953 ft 446 kts 294°
2026-05-06 07:03 -18.13048 114.54822 35923 ft 446 kts 294°
2026-05-06 07:03 -18.09849 114.49213 35952 ft 448 kts 294°
2026-05-06 07:04 -18.06633 114.43583 35952 ft 449 kts 295°
2026-05-06 07:04 -18.03419 114.37963 35948 ft 449 kts 295°
2026-05-06 07:05 -18.00199 114.32338 35954 ft 449 kts 295°
2026-05-06 07:05 -17.96998 114.26750 35955 ft 449 kts 295°
2026-05-06 07:06 -17.93774 114.21126 35953 ft 449 kts 295°
2026-05-06 07:06 -17.90549 114.15506 35949 ft 449 kts 295°
2026-05-06 07:07 -17.87323 114.09886 35935 ft 449 kts 295°
2026-05-06 07:07 -17.84113 114.04300 35952 ft 451 kts 295°
2026-05-06 07:08 -17.80864 113.98652 35950 ft 452 kts 295°
2026-05-06 07:08 -17.77616 113.93013 35949 ft 452 kts 295°
2026-05-06 07:09 -17.74364 113.87371 35952 ft 452 kts 295°
2026-05-06 07:09 -17.71134 113.81768 35946 ft 452 kts 295°
2026-05-06 07:10 -17.67875 113.76121 35950 ft 452 kts 295°
2026-05-06 07:10 -17.64621 113.70488 35949 ft 452 kts 295°
2026-05-06 07:11 -17.61359 113.64846 35924 ft 452 kts 296°
2026-05-06 07:11 -17.58115 113.59238 35943 ft 455 kts 296°
2026-05-06 07:12 -17.54831 113.53567 35948 ft 455 kts 296°
2026-05-06 07:12 -17.51542 113.47895 35948 ft 455 kts 296°
2026-05-06 07:13 -17.48257 113.42233 35949 ft 455 kts 296°
2026-05-06 07:13 -17.44990 113.36607 35948 ft 455 kts 296°
2026-05-06 07:14 -17.41698 113.30942 35951 ft 455 kts 296°
2026-05-06 07:14 -17.38407 113.25284 35947 ft 455 kts 296°
2026-05-06 07:15 -17.35107 113.19616 35935 ft 455 kts 296°
2026-05-06 07:15 -17.31826 113.13982 35951 ft 457 kts 296°
2026-05-06 07:16 -17.28517 113.08307 35948 ft 458 kts 296°
2026-05-06 07:16 -17.25196 113.02617 35948 ft 458 kts 296°
2026-05-06 07:17 -17.21874 112.96931 35949 ft 458 kts 296°
2026-05-06 07:17 -17.18577 112.91290 35947 ft 458 kts 296°
2026-05-06 07:18 -17.15254 112.85611 35944 ft 458 kts 296°
2026-05-06 07:18 -17.11928 112.79931 35949 ft 458 kts 296°
2026-05-06 07:19 -17.08599 112.74250 35944 ft 458 kts 296°
2026-05-06 07:19 -17.05287 112.68602 35947 ft 460 kts 296°
2026-05-06 07:20 -17.01944 112.62907 35944 ft 461 kts 296°
2026-05-06 07:20 -16.98589 112.57197 35942 ft 460 kts 296°
2026-05-06 07:21 -16.95236 112.51497 35945 ft 460 kts 296°
2026-05-06 07:21 -16.91905 112.45836 35944 ft 460 kts 296°
2026-05-06 07:22 -16.88555 112.40147 35944 ft 460 kts 296°
2026-05-06 07:22 -16.85197 112.34450 35944 ft 460 kts 296°
2026-05-06 07:23 -16.81842 112.28763 35946 ft 460 kts 296°
2026-05-06 07:23 -16.78480 112.23069 35947 ft 460 kts 296°
2026-05-06 07:24 -16.75143 112.17425 35942 ft 460 kts 296°
2026-05-06 07:24 -16.71779 112.11738 35940 ft 461 kts 297°
2026-05-06 07:25 -16.68411 112.06051 35942 ft 461 kts 297°
2026-05-06 07:25 -16.65043 112.00367 35942 ft 461 kts 297°
2026-05-06 07:26 -16.61694 111.94721 35942 ft 461 kts 297°
2026-05-06 07:26 -16.58327 111.89048 35941 ft 461 kts 297°
2026-05-06 07:27 -16.54951 111.83367 35941 ft 461 kts 297°
2026-05-06 07:27 -16.51570 111.77679 35938 ft 462 kts 297°
2026-05-06 07:28 -16.48203 111.72019 35940 ft 463 kts 297°
2026-05-06 07:28 -16.43106 111.63464 35937 ft 463 kts 297°
2026-05-06 07:29 -16.39707 111.57765 35935 ft 463 kts 297°
2026-05-06 07:29 -16.36327 111.52100 35936 ft 463 kts 297°
2026-05-06 07:30 -16.32924 111.46401 35939 ft 463 kts 297°
2026-05-06 07:30 -16.29518 111.40704 35935 ft 463 kts 297°
2026-05-06 07:31 -16.26118 111.35018 35929 ft 463 kts 297°
2026-05-06 07:31 -16.22702 111.29310 35951 ft 465 kts 297°
2026-05-06 07:32 -16.19282 111.23602 35931 ft 465 kts 297°
2026-05-06 07:32 -16.15875 111.17920 35929 ft 465 kts 297°
2026-05-06 07:33 -16.12453 111.12219 35947 ft 465 kts 297°
2026-05-06 07:33 -16.09021 111.06504 35942 ft 466 kts 297°
2026-05-06 07:34 -16.05613 111.00833 35930 ft 466 kts 297°
2026-05-06 07:34 -16.02182 110.95129 35946 ft 466 kts 297°
2026-05-06 07:35 -15.98743 110.89416 35941 ft 466 kts 297°
2026-05-06 07:35 -15.95304 110.83705 35928 ft 467 kts 298°
2026-05-06 07:36 -15.91849 110.77974 35926 ft 468 kts 298°
2026-05-06 07:36 -15.88414 110.72282 35931 ft 468 kts 298°
2026-05-06 07:37 -15.84955 110.66553 35928 ft 468 kts 298°
2026-05-06 07:37 -15.81497 110.60832 35928 ft 468 kts 298°
2026-05-06 07:38 -15.78035 110.55106 35928 ft 468 kts 298°
2026-05-06 07:38 -15.74595 110.49424 35926 ft 468 kts 298°
2026-05-06 07:39 -15.71130 110.43702 35927 ft 468 kts 298°
2026-05-06 07:39 -15.67659 110.37975 35929 ft 470 kts 298°
2026-05-06 07:40 -15.64176 110.32233 35925 ft 470 kts 298°
2026-05-06 07:40 -15.60688 110.26489 35925 ft 470 kts 298°
2026-05-06 07:41 -15.57220 110.20781 35919 ft 470 kts 298°
2026-05-06 07:41 -15.53730 110.15041 35923 ft 470 kts 298°
2026-05-06 07:42 -15.51987 110.12177 36116 ft 468 kts 298°
2026-05-06 07:42 -15.50255 110.09331 36382 ft 465 kts 298°
2026-05-06 07:42 -15.48538 110.06493 36632 ft 464 kts 298°
2026-05-06 07:42 -15.46829 110.03663 36853 ft 463 kts 298°
2026-05-06 07:43 -15.45127 110.00841 37022 ft 462 kts 298°
2026-05-06 07:43 -15.43448 109.98060 37205 ft 461 kts 298°
2026-05-06 07:43 -15.41747 109.95245 37367 ft 460 kts 298°
2026-05-06 07:43 -15.40046 109.92434 37443 ft 461 kts 299°
2026-05-06 07:44 -15.36632 109.86796 37691 ft 461 kts 299°
2026-05-06 07:44 -15.34930 109.83989 37858 ft 460 kts 299°
2026-05-06 07:44 -15.33222 109.81172 37920 ft 462 kts 299°
2026-05-06 07:45 -15.29816 109.75556 37916 ft 466 kts 299°
2026-05-06 07:45 -15.26365 109.69873 37910 ft 465 kts 299°
2026-05-06 07:46 -15.22920 109.64206 37920 ft 465 kts 299°
2026-05-06 07:46 -15.19472 109.58535 37919 ft 465 kts 299°
2026-05-06 07:47 -15.16030 109.52879 37916 ft 465 kts 299°
2026-05-06 07:47 -15.12606 109.47256 37916 ft 465 kts 299°
2026-05-06 07:48 -15.09151 109.41586 37914 ft 466 kts 299°
2026-05-06 07:48 -15.05688 109.35906 37908 ft 467 kts 299°
2026-05-06 07:49 -15.02236 109.30251 37912 ft 467 kts 299°
2026-05-06 07:49 -14.98769 109.24575 37911 ft 467 kts 299°
2026-05-06 07:50 -14.95297 109.18894 37911 ft 467 kts 299°
2026-05-06 07:50 -14.91823 109.13214 37911 ft 467 kts 299°
2026-05-06 07:51 -14.88345 109.07532 37909 ft 467 kts 299°
2026-05-06 07:51 -14.84896 109.01901 37909 ft 467 kts 299°
2026-05-06 07:52 -14.81425 108.96238 37908 ft 467 kts 299°
2026-05-06 07:52 -14.77932 108.90543 37907 ft 470 kts 299°
2026-05-06 07:53 -14.74435 108.84845 37908 ft 470 kts 299°
2026-05-06 07:53 -14.70937 108.79151 37906 ft 470 kts 299°
2026-05-06 07:54 -14.67433 108.73452 37906 ft 470 kts 299°
2026-05-06 07:54 -14.63955 108.67798 37905 ft 470 kts 299°
2026-05-06 07:55 -14.60451 108.62106 37906 ft 470 kts 299°
2026-05-06 07:55 -14.56946 108.56417 37905 ft 469 kts 299°
2026-05-06 07:56 -14.53440 108.50729 37903 ft 469 kts 299°
2026-05-06 07:56 -14.49954 108.45079 37904 ft 471 kts 300°
2026-05-06 07:57 -14.46422 108.39388 37902 ft 472 kts 300°
2026-05-06 07:57 -14.42866 108.33690 37904 ft 472 kts 300°
2026-05-06 07:58 -14.39318 108.28006 37903 ft 472 kts 300°
2026-05-06 07:58 -14.35767 108.22317 37902 ft 472 kts 300°
2026-05-06 07:59 -14.32239 108.16665 37900 ft 472 kts 300°
2026-05-06 07:59 -14.28681 108.10969 37900 ft 472 kts 300°
2026-05-06 08:00 -14.25127 108.05286 37902 ft 472 kts 300°
2026-05-06 08:00 -14.21594 107.99638 37893 ft 472 kts 300°
2026-05-06 08:01 -14.18032 107.93948 37897 ft 473 kts 301°
2026-05-06 08:01 -14.14459 107.88245 37897 ft 474 kts 301°
2026-05-06 08:02 -14.10881 107.82539 37897 ft 474 kts 301°
2026-05-06 08:02 -14.07303 107.76836 37897 ft 474 kts 301°
2026-05-06 08:03 -14.03749 107.71174 37897 ft 474 kts 301°
2026-05-06 08:03 -14.00166 107.65471 37898 ft 474 kts 301°
2026-05-06 08:04 -13.96581 107.59768 37897 ft 474 kts 301°
2026-05-06 08:04 -13.92992 107.54064 37898 ft 474 kts 301°
2026-05-06 08:05 -13.89430 107.48405 37894 ft 474 kts 301°
2026-05-06 08:05 -13.85837 107.42702 37891 ft 474 kts 301°
2026-05-06 08:06 -13.82252 107.37014 37891 ft 474 kts 301°
2026-05-06 08:06 -13.78657 107.31316 37891 ft 474 kts 301°
2026-05-06 08:07 -13.75066 107.25626 37892 ft 474 kts 301°
2026-05-06 08:07 -13.71504 107.19988 37890 ft 474 kts 301°
2026-05-06 08:08 -13.67910 107.14301 37892 ft 474 kts 301°
2026-05-06 08:08 -13.64317 107.08620 37892 ft 474 kts 301°
2026-05-06 08:09 -13.60746 107.02977 37887 ft 474 kts 301°
2026-05-06 08:09 -13.57162 106.97318 37886 ft 473 kts 301°
2026-05-06 08:10 -13.53570 106.91650 37902 ft 473 kts 301°
2026-05-06 08:10 -13.49977 106.85985 37880 ft 473 kts 301°
2026-05-06 08:11 -13.46387 106.80327 37895 ft 473 kts 301°
2026-05-06 08:11 -13.42795 106.74669 37894 ft 473 kts 301°
2026-05-06 08:12 -13.39223 106.69048 37875 ft 473 kts 301°
2026-05-06 08:12 -13.35633 106.63402 37893 ft 472 kts 301°
2026-05-06 08:13 -13.32037 106.57749 37893 ft 472 kts 301°
2026-05-06 08:13 -13.28444 106.52105 37869 ft 473 kts 301°
2026-05-06 08:14 -13.24869 106.46492 37888 ft 473 kts 301°
2026-05-06 08:14 -13.21269 106.40845 37889 ft 473 kts 301°
2026-05-06 08:15 -13.17657 106.35183 37866 ft 473 kts 301°
2026-05-06 08:15 -13.14055 106.29539 37879 ft 473 kts 301°
2026-05-06 08:16 -13.10466 106.23919 37881 ft 473 kts 301°
2026-05-06 08:16 -13.06861 106.18279 37875 ft 473 kts 301°
2026-05-06 08:17 -13.03248 106.12628 37880 ft 474 kts 301°
2026-05-06 08:17 -12.99637 106.06984 37881 ft 473 kts 301°
2026-05-06 08:18 -12.96019 106.01332 37877 ft 475 kts 302°
2026-05-06 08:18 -12.92416 105.95709 37879 ft 475 kts 302°
2026-05-06 08:19 -12.88786 105.90047 37877 ft 475 kts 302°
2026-05-06 08:19 -12.85154 105.84385 37873 ft 475 kts 302°
2026-05-06 08:20 -12.81519 105.78722 37873 ft 475 kts 302°
2026-05-06 08:20 -12.77911 105.73105 37874 ft 475 kts 302°
2026-05-06 08:21 -12.74279 105.67454 37874 ft 475 kts 302°
2026-05-06 08:21 -12.70644 105.61800 37871 ft 475 kts 302°
2026-05-06 08:22 -12.67009 105.56151 37871 ft 475 kts 302°
2026-05-06 08:22 -12.63374 105.50505 37868 ft 476 kts 302°
2026-05-06 08:23 -12.59743 105.44869 37873 ft 477 kts 302°
2026-05-06 08:23 -12.56092 105.39205 37873 ft 477 kts 302°
2026-05-06 08:24 -12.52437 105.33539 37869 ft 477 kts 302°
2026-05-06 08:24 -12.48783 105.27879 37872 ft 477 kts 302°
2026-05-06 08:25 -12.45151 105.22254 37868 ft 477 kts 302°
2026-05-06 08:25 -12.41494 105.16594 37865 ft 477 kts 302°
2026-05-06 08:26 -12.37836 105.10937 37868 ft 477 kts 302°
2026-05-06 08:26 -12.34175 105.05279 37864 ft 477 kts 302°
2026-05-06 08:27 -12.30540 104.99664 37867 ft 477 kts 302°
2026-05-06 08:27 -12.26878 104.94010 37865 ft 477 kts 302°
2026-05-06 08:28 -12.23209 104.88349 37865 ft 477 kts 302°
2026-05-06 08:28 -12.19550 104.82707 37868 ft 476 kts 302°
2026-05-06 08:29 -12.15915 104.77106 37868 ft 476 kts 302°
2026-05-06 08:29 -12.12254 104.71466 37868 ft 476 kts 302°
2026-05-06 08:30 -12.08597 104.65837 37863 ft 476 kts 302°
2026-05-06 08:30 -12.04934 104.60202 37864 ft 476 kts 302°
2026-05-06 08:31 -12.01292 104.54603 37862 ft 476 kts 302°
2026-05-06 08:31 -11.97627 104.48972 37865 ft 476 kts 302°
2026-05-06 08:32 -11.93958 104.43337 37863 ft 476 kts 302°
2026-05-06 08:32 -11.90287 104.37703 37863 ft 476 kts 302°
2026-05-06 08:33 -11.86641 104.32110 37861 ft 476 kts 302°
2026-05-06 08:33 -11.82976 104.26491 37861 ft 476 kts 302°
2026-05-06 08:34 -11.77459 104.18039 37858 ft 476 kts 303°
2026-05-06 08:35 -11.73788 104.12419 37858 ft 476 kts 303°
2026-05-06 08:35 -11.70131 104.06825 37859 ft 476 kts 303°
2026-05-06 08:36 -11.66453 104.01200 37857 ft 477 kts 303°
2026-05-06 08:36 -11.62772 103.95574 37858 ft 477 kts 303°
2026-05-06 08:37 -11.59083 103.89940 37861 ft 477 kts 303°
2026-05-06 08:37 -11.55418 103.84344 37858 ft 477 kts 303°
2026-05-06 08:38 -11.51731 103.78718 37856 ft 478 kts 303°
2026-05-06 08:38 -11.48035 103.73083 37859 ft 478 kts 303°
2026-05-06 08:39 -11.44343 103.67457 37860 ft 478 kts 303°
2026-05-06 08:39 -11.40672 103.61865 37856 ft 478 kts 303°
2026-05-06 08:40 -11.36978 103.56241 37855 ft 478 kts 303°
2026-05-06 08:40 -11.33279 103.50612 37857 ft 478 kts 303°
2026-05-06 08:41 -11.29573 103.44976 37857 ft 479 kts 303°
2026-05-06 08:41 -11.25861 103.39335 37853 ft 479 kts 303°
2026-05-06 08:42 -11.22179 103.33742 37854 ft 479 kts 303°
2026-05-06 08:42 -11.18463 103.28100 37853 ft 479 kts 303°
2026-05-06 08:43 -11.14750 103.22466 37853 ft 479 kts 303°
2026-05-06 08:43 -11.11662 103.17783 37854 ft 479 kts 303°
2026-05-06 08:44 -11.07948 103.12152 37856 ft 479 kts 303°
2026-05-06 08:44 -11.04229 103.06518 37853 ft 480 kts 303°
2026-05-06 08:45 -10.99900 102.99963 37852 ft 480 kts 303°
2026-05-06 08:45 -10.96803 102.95276 37854 ft 480 kts 303°
2026-05-06 08:46 -10.92468 102.88709 37852 ft 480 kts 303°
2026-05-06 08:46 -10.88747 102.83073 37851 ft 479 kts 303°
2026-05-06 08:47 -10.85655 102.78394 37851 ft 479 kts 303°
2026-05-06 08:47 -10.81928 102.72756 37850 ft 481 kts 303°
2026-05-06 08:48 -10.78195 102.67114 37848 ft 481 kts 303°
2026-05-06 08:48 -10.74457 102.61467 37848 ft 482 kts 303°
2026-05-06 08:49 -10.70716 102.55817 37851 ft 482 kts 303°
2026-05-06 08:49 -10.66976 102.50172 37848 ft 481 kts 303°
2026-05-06 08:50 -10.63261 102.44570 37849 ft 481 kts 303°
2026-05-06 08:50 -10.59522 102.38931 37845 ft 481 kts 303°
2026-05-06 08:51 -10.55787 102.33303 37843 ft 480 kts 303°
2026-05-06 08:51 -10.52072 102.27708 37845 ft 480 kts 303°
2026-05-06 08:52 -10.48334 102.22080 37843 ft 481 kts 303°
2026-05-06 08:52 -10.44586 102.16441 37842 ft 480 kts 303°
2026-05-06 08:53 -10.40843 102.10812 37845 ft 481 kts 303°
2026-05-06 08:53 -10.37123 102.05220 37843 ft 482 kts 303°
2026-05-06 08:54 -10.33376 101.99590 37838 ft 481 kts 304°
2026-05-06 08:54 -10.29632 101.93968 37844 ft 480 kts 304°
2026-05-06 08:55 -10.25883 101.88343 37842 ft 481 kts 304°
2026-05-06 08:55 -10.22136 101.82720 37842 ft 480 kts 304°
2026-05-06 08:56 -10.18418 101.77147 37840 ft 479 kts 304°
2026-05-06 08:56 -10.14672 101.71533 37839 ft 481 kts 304°
2026-05-06 08:57 -10.10921 101.65913 37838 ft 481 kts 304°
2026-05-06 08:57 -10.07191 101.60329 37841 ft 481 kts 304°
2026-05-06 08:58 -10.03436 101.54709 37840 ft 481 kts 304°
2026-05-06 08:58 -9.99688 101.49103 37838 ft 481 kts 304°
2026-05-06 08:59 -9.95926 101.43480 37839 ft 481 kts 304°
2026-05-06 08:59 -9.92190 101.37896 37837 ft 482 kts 304°
2026-05-06 09:00 -9.88427 101.32275 37838 ft 481 kts 304°
2026-05-06 09:00 -9.84665 101.26659 37840 ft 480 kts 304°
2026-05-06 09:01 -9.80913 101.21061 37838 ft 480 kts 304°
2026-05-06 09:01 -9.77176 101.15487 37837 ft 483 kts 304°
2026-05-06 09:02 -9.73402 101.09860 37834 ft 482 kts 304°
2026-05-06 09:02 -9.69636 101.04248 37838 ft 482 kts 304°
2026-05-06 09:03 -9.65847 100.98606 37834 ft 484 kts 304°
2026-05-06 09:03 -9.62077 100.92991 37831 ft 485 kts 304°
2026-05-06 09:04 -9.58288 100.87355 37838 ft 484 kts 304°
2026-05-06 09:04 -9.54501 100.81722 37835 ft 484 kts 304°
2026-05-06 09:05 -9.50709 100.76084 37830 ft 484 kts 305°
2026-05-06 09:05 -9.46923 100.70459 37835 ft 483 kts 305°
2026-05-06 09:06 -9.43163 100.64874 37833 ft 482 kts 305°
2026-05-06 09:06 -9.39377 100.59255 37832 ft 484 kts 304°
2026-05-06 09:07 -9.35577 100.53617 37835 ft 485 kts 304°
2026-05-06 09:07 -9.31773 100.47974 37832 ft 486 kts 304°
2026-05-06 09:08 -9.27982 100.42352 37829 ft 488 kts 305°
2026-05-06 09:08 -9.24151 100.36676 37834 ft 489 kts 305°
2026-05-06 09:09 -9.20322 100.31004 37840 ft 487 kts 305°
2026-05-06 09:09 -9.16511 100.25361 37831 ft 486 kts 305°
2026-05-06 09:10 -9.12713 100.19740 37835 ft 487 kts 304°
2026-05-06 09:10 -9.08904 100.14105 37830 ft 483 kts 304°
2026-05-06 09:11 -9.05119 100.08509 37825 ft 482 kts 304°
2026-05-06 09:11 -9.01334 100.02915 37824 ft 483 kts 304°
2026-05-06 09:12 -8.97525 99.97287 37834 ft 485 kts 304°
2026-05-06 09:12 -8.93746 99.91708 37829 ft 483 kts 304°
2026-05-06 09:13 -8.89934 99.86080 37826 ft 487 kts 304°
2026-05-06 09:13 -8.86104 99.80429 37828 ft 486 kts 304°
2026-05-06 09:14 -8.82295 99.74810 37830 ft 484 kts 304°
2026-05-06 09:14 -8.78493 99.69205 37831 ft 483 kts 304°
2026-05-06 09:15 -8.74719 99.63646 37830 ft 483 kts 304°
2026-05-06 09:15 -8.70915 99.58042 37833 ft 483 kts 304°
2026-05-06 09:16 -8.67118 99.52450 37828 ft 482 kts 304°
2026-05-06 09:16 -8.63320 99.46861 37830 ft 482 kts 304°
2026-05-06 09:17 -8.59543 99.41305 37824 ft 484 kts 304°
2026-05-06 09:17 -8.55725 99.35692 37831 ft 486 kts 304°
2026-05-06 09:18 -8.51898 99.30066 37822 ft 485 kts 304°
2026-05-06 09:18 -8.48073 99.24445 37826 ft 487 kts 304°
2026-05-06 09:19 -8.44260 99.18845 37827 ft 488 kts 304°
2026-05-06 09:19 -8.40423 99.13211 37829 ft 486 kts 304°
2026-05-06 09:20 -8.36588 99.07584 37829 ft 485 kts 304°
2026-05-06 09:20 -8.32769 99.01982 37823 ft 485 kts 304°
2026-05-06 09:21 -8.28944 98.96373 37820 ft 484 kts 304°
2026-05-06 09:21 -8.25147 98.90807 37823 ft 484 kts 304°
2026-05-06 09:22 -8.21324 98.85206 37824 ft 485 kts 305°
2026-05-06 09:22 -8.17494 98.79597 37826 ft 485 kts 305°
2026-05-06 09:23 -8.13659 98.73982 37825 ft 487 kts 305°
2026-05-06 09:23 -8.09841 98.68397 37821 ft 485 kts 304°
2026-05-06 09:24 -8.06009 98.62790 37828 ft 486 kts 304°
2026-05-06 09:24 -8.02164 98.57167 37827 ft 488 kts 304°
2026-05-06 09:25 -7.98305 98.51527 37829 ft 488 kts 304°
2026-05-06 09:25 -7.94454 98.45899 37828 ft 486 kts 304°
2026-05-06 09:26 -7.90616 98.40294 37826 ft 486 kts 304°
2026-05-06 09:26 -7.86798 98.34719 37823 ft 488 kts 304°
2026-05-06 09:27 -7.82933 98.29077 37823 ft 489 kts 306°
2026-05-06 09:27 -7.79064 98.23433 37821 ft 488 kts 306°
2026-05-06 09:28 -7.75208 98.17810 37830 ft 488 kts 305°
2026-05-06 09:28 -7.71367 98.12211 37827 ft 489 kts 305°
2026-05-06 09:29 -7.67490 98.06562 37827 ft 490 kts 306°
2026-05-06 09:29 -7.63618 98.00921 37823 ft 489 kts 306°
2026-05-06 09:30 -7.59747 97.95283 37825 ft 490 kts 306°
2026-05-06 09:30 -7.55892 97.89671 37825 ft 491 kts 306°
2026-05-06 09:31 -7.52000 97.84009 37830 ft 491 kts 305°
2026-05-06 09:31 -7.48101 97.78339 37827 ft 495 kts 305°
2026-05-06 09:32 -7.44193 97.72655 37825 ft 497 kts 305°
2026-05-06 09:32 -7.40259 97.66936 37825 ft 497 kts 305°
2026-05-06 09:33 -7.36323 97.61217 37827 ft 497 kts 305°
2026-05-06 09:33 -7.32394 97.55509 37828 ft 494 kts 306°
2026-05-06 09:34 -7.28492 97.49843 37826 ft 491 kts 306°
2026-05-06 09:34 -7.24629 97.44237 37827 ft 491 kts 305°
2026-05-06 09:35 -7.20730 97.38580 37827 ft 492 kts 305°
2026-05-06 09:35 -7.16829 97.32921 37827 ft 492 kts 306°
2026-05-06 09:36 -7.12925 97.27262 37826 ft 491 kts 306°
2026-05-06 09:36 -7.09054 97.21651 37826 ft 492 kts 305°
2026-05-06 09:37 -7.05147 97.15990 37823 ft 493 kts 305°
2026-05-06 09:37 -7.01237 97.10326 37826 ft 492 kts 306°
2026-05-06 09:38 -6.97332 97.04671 37826 ft 492 kts 306°
2026-05-06 09:38 -6.93430 96.99024 37826 ft 491 kts 306°
2026-05-06 09:39 -6.89551 96.93410 37831 ft 492 kts 306°
2026-05-06 09:39 -6.85644 96.87759 37829 ft 492 kts 306°
2026-05-06 09:40 -6.81738 96.82111 37831 ft 492 kts 306°
2026-05-06 09:40 -6.75879 96.73643 37825 ft 494 kts 306°
2026-05-06 09:41 -6.71959 96.67979 37826 ft 493 kts 306°
2026-05-06 09:41 -6.68041 96.62320 37826 ft 493 kts 305°
2026-05-06 09:42 -6.64118 96.56655 37823 ft 493 kts 306°
2026-05-06 09:42 -6.60219 96.51027 37824 ft 493 kts 306°
2026-05-06 09:43 -6.56298 96.45370 37823 ft 493 kts 306°
2026-05-06 09:43 -6.52373 96.39707 37823 ft 493 kts 306°
2026-05-06 09:44 -6.48443 96.34041 37823 ft 493 kts 306°
2026-05-06 09:44 -6.44548 96.28425 37823 ft 493 kts 306°
2026-05-06 09:45 -6.40622 96.22768 37824 ft 494 kts 305°
2026-05-06 09:45 -6.36679 96.17087 37823 ft 495 kts 305°
2026-05-06 09:46 -6.32737 96.11409 37820 ft 496 kts 305°
2026-05-06 09:46 -6.28790 96.05725 37820 ft 495 kts 305°
2026-05-06 09:47 -6.24882 96.00101 37821 ft 494 kts 305°
2026-05-06 09:47 -6.20944 95.94436 37821 ft 494 kts 305°
2026-05-06 09:48 -6.17014 95.88782 37818 ft 494 kts 305°
2026-05-06 09:48 -6.13099 95.83152 37818 ft 494 kts 305°
2026-05-06 09:49 -6.09159 95.77488 37815 ft 494 kts 305°
2026-05-06 09:49 -6.05224 95.71833 37815 ft 494 kts 305°
2026-05-06 09:50 -6.01280 95.66166 37816 ft 495 kts 305°
2026-05-06 09:50 -5.97331 95.60494 37815 ft 496 kts 305°
2026-05-06 09:51 -5.93395 95.54842 37815 ft 496 kts 305°
2026-05-06 09:51 -5.89441 95.49167 37815 ft 496 kts 305°
2026-05-06 09:52 -5.85479 95.43481 37815 ft 496 kts 305°
2026-05-06 09:52 -5.81523 95.37804 37815 ft 496 kts 305°
2026-05-06 09:53 -5.77591 95.32166 37814 ft 496 kts 305°
2026-05-06 09:53 -5.73644 95.26506 37815 ft 494 kts 305°
2026-05-06 09:54 -5.69710 95.20866 37815 ft 493 kts 305°
2026-05-06 09:54 -5.65775 95.15227 37815 ft 494 kts 305°
2026-05-06 09:55 -5.61836 95.09583 37815 ft 494 kts 305°
2026-05-06 09:55 -5.57913 95.03964 37815 ft 494 kts 305°
2026-05-06 09:56 -5.53969 94.98316 37815 ft 494 kts 305°
2026-05-06 09:56 -5.50028 94.92676 37814 ft 493 kts 305°
2026-05-06 09:57 -5.46117 94.87078 37816 ft 492 kts 305°
2026-05-06 09:57 -5.42191 94.81461 37815 ft 492 kts 305°
2026-05-06 09:58 -5.38257 94.75833 37815 ft 492 kts 305°
2026-05-06 09:58 -5.34322 94.70207 37815 ft 492 kts 305°
2026-05-06 09:59 -5.30391 94.64586 37816 ft 492 kts 305°
2026-05-06 09:59 -5.26492 94.59013 37815 ft 491 kts 305°
2026-05-06 10:00 -5.22567 94.53405 37817 ft 490 kts 305°
2026-05-06 10:00 -5.18650 94.47809 37818 ft 490 kts 305°
2026-05-06 10:01 -5.14758 94.42251 37815 ft 490 kts 305°
2026-05-06 10:01 -5.10843 94.36660 37815 ft 490 kts 305°
2026-05-06 10:02 -5.06922 94.31064 37815 ft 490 kts 305°
2026-05-06 10:02 -5.03000 94.25466 37815 ft 490 kts 305°
2026-05-06 10:03 -4.99077 94.19868 37815 ft 490 kts 305°
2026-05-06 10:03 -4.95185 94.14316 37815 ft 489 kts 306°
2026-05-06 10:04 -4.91278 94.08744 37815 ft 488 kts 306°
2026-05-06 10:04 -4.87369 94.03172 37816 ft 488 kts 306°
2026-05-06 10:05 -4.83464 93.97605 37818 ft 488 kts 306°
2026-05-06 10:05 -4.79586 93.92079 37818 ft 488 kts 306°
2026-05-06 10:06 -4.75681 93.86515 37818 ft 488 kts 306°
2026-05-06 10:06 -4.71775 93.80951 37822 ft 488 kts 306°
2026-05-06 10:07 -4.67874 93.75395 37813 ft 487 kts 306°
2026-05-06 10:07 -4.64003 93.69883 37815 ft 487 kts 306°
2026-05-06 10:08 -4.60103 93.64331 37813 ft 487 kts 306°
2026-05-06 10:08 -4.56205 93.58784 37820 ft 487 kts 306°
2026-05-06 10:09 -4.52304 93.53233 37819 ft 488 kts 306°
2026-05-06 10:09 -4.48388 93.47661 37814 ft 488 kts 306°
2026-05-06 10:10 -4.44503 93.42136 37816 ft 488 kts 306°
2026-05-06 10:10 -4.40593 93.36575 37818 ft 488 kts 306°
2026-05-06 10:11 -4.36672 93.31001 37818 ft 488 kts 306°
2026-05-06 10:11 -4.32763 93.25445 37815 ft 488 kts 306°
2026-05-06 10:12 -4.28844 93.19875 37825 ft 488 kts 306°
2026-05-06 10:12 -4.24958 93.14354 37822 ft 488 kts 306°
2026-05-06 10:13 -4.21039 93.08787 37825 ft 488 kts 306°
2026-05-06 10:13 -4.17127 93.03231 37820 ft 488 kts 306°
2026-05-06 10:14 -4.13225 92.97690 37820 ft 486 kts 306°
2026-05-06 10:14 -4.09354 92.92195 37821 ft 485 kts 306°
2026-05-06 10:15 -4.05469 92.86677 37827 ft 485 kts 306°
2026-05-06 10:15 -4.01574 92.81146 37822 ft 485 kts 306°
2026-05-06 10:16 -3.97687 92.75629 37825 ft 485 kts 306°
2026-05-06 10:16 -3.93817 92.70137 37824 ft 485 kts 306°
2026-05-06 10:17 -3.89927 92.64618 37826 ft 485 kts 306°
2026-05-06 10:17 -3.86042 92.59105 37829 ft 484 kts 306°
2026-05-06 10:18 -3.82157 92.53595 37830 ft 484 kts 306°
2026-05-06 10:18 -3.78299 92.48125 37830 ft 485 kts 306°
2026-05-06 10:19 -3.74407 92.42608 37830 ft 486 kts 306°
2026-05-06 10:19 -3.70504 92.37075 37829 ft 487 kts 306°
2026-05-06 10:20 -3.66588 92.31524 37831 ft 488 kts 306°
2026-05-06 10:20 -3.62681 92.25986 37831 ft 486 kts 306°
2026-05-06 10:21 -3.58817 92.20511 37826 ft 485 kts 306°
2026-05-06 10:21 -3.54928 92.15003 37834 ft 485 kts 306°
2026-05-06 10:22 -3.51028 92.09480 37828 ft 486 kts 306°
2026-05-06 10:22 -3.47125 92.03952 37832 ft 486 kts 306°
2026-05-06 10:23 -3.43258 91.98477 37830 ft 485 kts 306°
2026-05-06 10:23 -3.39356 91.92953 37830 ft 485 kts 306°
2026-05-06 10:24 -3.35464 91.87443 37826 ft 486 kts 306°
2026-05-06 10:24 -3.31555 91.81912 37826 ft 487 kts 306°
2026-05-06 10:25 -3.27667 91.76412 37829 ft 487 kts 306°
2026-05-06 10:25 -3.23751 91.70872 37828 ft 487 kts 306°
2026-05-06 10:26 -3.19834 91.65330 37828 ft 488 kts 306°
2026-05-06 10:26 -3.15917 91.59790 37825 ft 488 kts 306°
2026-05-06 10:27 -3.12019 91.54279 37825 ft 488 kts 306°
2026-05-06 10:27 -3.08103 91.48742 37826 ft 486 kts 306°
2026-05-06 10:28 -3.04205 91.43231 37826 ft 485 kts 306°
2026-05-06 10:28 -3.00304 91.37717 37829 ft 485 kts 306°
2026-05-06 10:29 -2.96411 91.32215 37825 ft 485 kts 306°
2026-05-06 10:29 -2.92535 91.26737 37827 ft 485 kts 306°
2026-05-06 10:30 -2.88636 91.21228 37831 ft 486 kts 306°
2026-05-06 10:30 -2.84723 91.15701 37830 ft 487 kts 306°
2026-05-06 10:31 -2.80810 91.10173 37832 ft 488 kts 306°
2026-05-06 10:31 -2.76884 91.04629 37823 ft 488 kts 306°
2026-05-06 10:32 -2.72994 90.99135 37825 ft 487 kts 306°
2026-05-06 10:32 -2.69077 90.93605 37824 ft 487 kts 306°
2026-05-06 10:33 -2.65155 90.88067 37825 ft 488 kts 306°
2026-05-06 10:33 -2.61220 90.82512 37821 ft 491 kts 306°
2026-05-06 10:34 -2.57288 90.76964 37821 ft 491 kts 306°
2026-05-06 10:34 -2.53354 90.71411 37821 ft 488 kts 307°
2026-05-06 10:35 -2.49426 90.65868 37821 ft 488 kts 307°
2026-05-06 10:35 -2.45504 90.60335 37823 ft 488 kts 306°
2026-05-06 10:36 -2.41560 90.54769 37824 ft 491 kts 306°
2026-05-06 10:36 -2.37642 90.49244 37824 ft 491 kts 306°
2026-05-06 10:37 -2.33690 90.43670 37823 ft 491 kts 307°
2026-05-06 10:37 -2.29751 90.38117 37820 ft 488 kts 307°
2026-05-06 10:38 -2.25853 90.32619 37822 ft 486 kts 306°
2026-05-06 10:38 -2.21948 90.27113 37824 ft 485 kts 306°
2026-05-06 10:39 -2.18038 90.21601 37826 ft 488 kts 306°
2026-05-06 10:39 -2.14106 90.16057 37823 ft 488 kts 306°
2026-05-06 10:40 -2.10188 90.10534 37831 ft 486 kts 306°
2026-05-06 10:40 -2.06303 90.05059 37827 ft 485 kts 306°
2026-05-06 10:41 -2.02401 89.99561 37827 ft 485 kts 306°
2026-05-06 10:41 -2.00406 89.96825 37579 ft 492 kts 310°
2026-05-06 10:41 -1.98127 89.94241 37524 ft 496 kts 313°
2026-05-06 10:42 -1.95779 89.91729 37727 ft 495 kts 314°
2026-05-06 10:42 -1.93412 89.89239 37974 ft 493 kts 315°
2026-05-06 10:42 -1.91069 89.86795 38183 ft 492 kts 314°
2026-05-06 10:42 -1.88694 89.84323 38269 ft 494 kts 314°
2026-05-06 10:43 -1.86318 89.81848 38377 ft 495 kts 314°
2026-05-06 10:43 -1.83937 89.79364 38546 ft 494 kts 314°
2026-05-06 10:43 -1.81557 89.76878 38691 ft 494 kts 314°
2026-05-06 10:44 -1.76817 89.71921 38979 ft 493 kts 314°
2026-05-06 10:44 -1.74453 89.69447 39092 ft 493 kts 314°
2026-05-06 10:44 -1.72078 89.66962 39199 ft 493 kts 314°
2026-05-06 10:44 -1.69719 89.64495 39338 ft 492 kts 314°
2026-05-06 10:45 -1.67351 89.62018 39481 ft 491 kts 314°
2026-05-06 10:45 -1.62667 89.57118 39665 ft 491 kts 314°
2026-05-06 10:45 -1.60309 89.54652 39782 ft 491 kts 314°
2026-05-06 10:46 -1.57945 89.52180 39831 ft 492 kts 314°
2026-05-06 10:46 -1.53217 89.47235 39830 ft 492 kts 314°
2026-05-06 10:47 -1.48512 89.42315 39829 ft 492 kts 314°
2026-05-06 10:47 -1.43779 89.37367 39827 ft 494 kts 314°
2026-05-06 10:48 -1.39029 89.32400 39827 ft 493 kts 314°
2026-05-06 10:48 -1.34289 89.27444 39828 ft 493 kts 314°
2026-05-06 10:49 -1.29553 89.22493 39826 ft 493 kts 314°
2026-05-06 10:49 -1.24840 89.17566 39826 ft 494 kts 314°
2026-05-06 10:50 -1.20089 89.12600 39823 ft 494 kts 314°
2026-05-06 10:50 -1.15333 89.07629 39826 ft 495 kts 314°
2026-05-06 10:51 -1.10559 89.02640 39829 ft 497 kts 314°
2026-05-06 10:51 -1.05815 88.97682 39830 ft 498 kts 314°
2026-05-06 10:52 -1.01031 88.92681 39824 ft 497 kts 313°
2026-05-06 10:52 -0.96255 88.87679 39831 ft 497 kts 314°
2026-05-06 10:53 -0.91480 88.82681 39829 ft 498 kts 314°
2026-05-06 10:53 -0.86744 88.77725 39829 ft 497 kts 314°
2026-05-06 10:54 -0.81977 88.72735 39826 ft 497 kts 314°
2026-05-06 10:54 -0.77199 88.67736 39825 ft 496 kts 314°
2026-05-06 10:55 -0.72431 88.62745 39825 ft 496 kts 314°
2026-05-06 10:55 -0.67669 88.57762 39825 ft 496 kts 314°
2026-05-06 10:56 -0.62938 88.52813 39830 ft 496 kts 314°
2026-05-06 10:56 -0.58165 88.47818 39830 ft 497 kts 314°
2026-05-06 10:57 -0.53381 88.42812 39829 ft 500 kts 314°
2026-05-06 10:57 -0.48581 88.37791 39831 ft 505 kts 314°
2026-05-06 10:58 -0.43729 88.32714 39830 ft 506 kts 314°
2026-05-06 10:58 -0.38876 88.27636 39828 ft 504 kts 314°
2026-05-06 10:59 -0.34056 88.22591 39825 ft 499 kts 314°
2026-05-06 10:59 -0.29266 88.17579 39826 ft 499 kts 314°
2026-05-06 11:00 -0.24485 88.12577 39830 ft 498 kts 314°
2026-05-06 11:00 -0.19722 88.07594 39829 ft 500 kts 314°
2026-05-06 11:01 -0.14894 88.02544 39831 ft 504 kts 314°
2026-05-06 11:01 -0.10051 87.97478 39812 ft 505 kts 314°
2026-05-06 11:02 -0.05215 87.92417 39816 ft 502 kts 314°
2026-05-06 11:02 -0.00430 87.87411 39833 ft 501 kts 314°
2026-05-06 11:03 0.04387 87.82370 39827 ft 502 kts 314°
2026-05-06 11:03 0.09188 87.77347 39831 ft 500 kts 315°
2026-05-06 11:04 0.14006 87.72308 39831 ft 501 kts 315°
2026-05-06 11:04 0.18816 87.67276 39820 ft 501 kts 314°
2026-05-06 11:05 0.23614 87.62256 39836 ft 504 kts 314°
2026-05-06 11:05 0.28452 87.57194 39837 ft 504 kts 314°
2026-05-06 11:06 0.33275 87.52147 39817 ft 501 kts 314°
2026-05-06 11:06 0.38103 87.47096 39814 ft 504 kts 314°
2026-05-06 11:07 0.42920 87.42057 39830 ft 504 kts 314°
2026-05-06 11:07 0.47770 87.36984 39813 ft 507 kts 314°
2026-05-06 11:08 0.52642 87.31891 39818 ft 506 kts 314°
2026-05-06 11:08 0.57500 87.26805 39818 ft 507 kts 314°
2026-05-06 11:09 0.62357 87.21721 39816 ft 509 kts 314°
2026-05-06 11:09 0.67240 87.16612 39818 ft 508 kts 314°
2026-05-06 11:10 0.72126 87.11501 39812 ft 509 kts 314°
2026-05-06 11:10 0.77023 87.06376 39833 ft 509 kts 314°
2026-05-06 11:11 0.81860 87.01315 39831 ft 504 kts 314°
2026-05-06 11:11 0.86699 86.96251 39835 ft 504 kts 314°
2026-05-06 11:12 0.91542 86.91184 39823 ft 504 kts 314°
2026-05-06 11:12 0.96401 86.86100 39824 ft 508 kts 314°
2026-05-06 11:13 1.01265 86.81009 39820 ft 506 kts 314°
2026-05-06 11:13 1.06081 86.75969 39824 ft 505 kts 314°
2026-05-06 11:14 1.10952 86.70872 39824 ft 508 kts 314°
2026-05-06 11:14 1.15828 86.65768 39823 ft 507 kts 314°
2026-05-06 11:15 1.20678 86.60691 39819 ft 504 kts 314°
2026-05-06 11:15 1.25477 86.55667 39826 ft 502 kts 314°
2026-05-06 11:16 1.30304 86.50616 39825 ft 503 kts 314°
2026-05-06 11:16 1.35161 86.45532 39815 ft 506 kts 315°
2026-05-06 11:17 1.40016 86.40448 39820 ft 504 kts 314°
2026-05-06 11:17 1.44841 86.35395 39825 ft 502 kts 314°
2026-05-06 11:18 1.49655 86.30355 39820 ft 506 kts 314°
2026-05-06 11:18 1.54510 86.25271 39817 ft 506 kts 315°
2026-05-06 11:19 1.59391 86.20159 39820 ft 510 kts 315°
2026-05-06 11:19 1.64298 86.15013 39813 ft 511 kts 314°
2026-05-06 11:20 1.69026 86.09812 39820 ft 506 kts 312°
2026-05-06 11:20 1.73712 86.04562 39818 ft 507 kts 313°
2026-05-06 11:21 1.78425 85.99318 39816 ft 506 kts 313°
2026-05-06 11:21 1.82335 85.94992 39817 ft 504 kts 313°
2026-05-06 11:22 1.87053 85.89783 39811 ft 507 kts 313°
2026-05-06 11:22 1.92536 85.83728 39820 ft 507 kts 313°
2026-05-06 11:23 1.96486 85.79364 39811 ft 510 kts 312°
2026-05-06 11:23 2.01225 85.74126 39816 ft 508 kts 312°
2026-05-06 11:24 2.05982 85.68868 39813 ft 511 kts 313°
2026-05-06 11:24 2.11532 85.62735 39816 ft 514 kts 313°
2026-05-06 11:25 2.15551 85.58290 39810 ft 513 kts 312°
2026-05-06 11:25 2.20274 85.53069 39811 ft 507 kts 313°
2026-05-06 11:26 2.25013 85.47830 39820 ft 510 kts 312°
2026-05-06 11:26 2.29778 85.42561 39816 ft 511 kts 312°
2026-05-06 11:27 2.34519 85.37317 39812 ft 504 kts 312°
2026-05-06 11:27 2.39176 85.32166 39815 ft 502 kts 312°
2026-05-06 11:28 2.43874 85.26970 39810 ft 506 kts 313°
2026-05-06 11:28 2.48607 85.21735 39815 ft 509 kts 313°
2026-05-06 11:29 2.53338 85.16499 39811 ft 506 kts 312°
2026-05-06 11:29 2.58023 85.11315 39815 ft 507 kts 313°
2026-05-06 11:30 2.62761 85.06072 39809 ft 509 kts 312°
2026-05-06 11:30 2.67501 85.00826 39811 ft 508 kts 313°
2026-05-06 11:31 2.72242 84.95578 39815 ft 508 kts 313°
2026-05-06 11:31 2.76969 84.90345 39809 ft 506 kts 313°
2026-05-06 11:32 2.81684 84.85124 39810 ft 507 kts 313°
2026-05-06 11:32 2.86381 84.79923 39810 ft 506 kts 313°
2026-05-06 11:33 2.91096 84.74702 39811 ft 506 kts 313°
2026-05-06 11:33 2.95805 84.69485 39813 ft 505 kts 313°
2026-05-06 11:34 3.00512 84.64271 39811 ft 505 kts 313°
2026-05-06 11:34 3.05195 84.59083 39811 ft 507 kts 313°
2026-05-06 11:35 3.09918 84.53850 39809 ft 507 kts 313°
2026-05-06 11:35 3.14643 84.48612 39808 ft 507 kts 313°
2026-05-06 11:36 3.19373 84.43370 39807 ft 507 kts 313°
2026-05-06 11:36 3.24064 84.38170 39808 ft 507 kts 313°
2026-05-06 11:37 3.28785 84.32935 39806 ft 507 kts 313°
2026-05-06 11:37 3.33509 84.27696 39808 ft 507 kts 313°
2026-05-06 11:38 3.38228 84.22462 39808 ft 507 kts 313°
2026-05-06 11:38 3.42944 84.17231 39807 ft 506 kts 313°
2026-05-06 11:39 3.47615 84.12049 39805 ft 504 kts 313°
2026-05-06 11:39 3.52308 84.06841 39805 ft 503 kts 313°
2026-05-06 11:40 3.56961 84.01610 39802 ft 503 kts 312°
2026-05-06 11:40 3.61538 83.96297 39802 ft 503 kts 311°
2026-05-06 11:41 3.66104 83.90994 39801 ft 503 kts 312°
2026-05-06 11:41 3.70659 83.85733 39802 ft 503 kts 312°
2026-05-06 11:42 3.75251 83.80443 39800 ft 503 kts 312°
2026-05-06 11:42 3.79838 83.75158 39801 ft 503 kts 312°
2026-05-06 11:43 3.84417 83.69882 39799 ft 501 kts 311°
2026-05-06 11:43 3.88956 83.64649 39797 ft 501 kts 311°
2026-05-06 11:44 3.95808 83.56747 39797 ft 501 kts 311°
2026-05-06 11:44 4.00375 83.51479 39800 ft 501 kts 311°
2026-05-06 11:45 4.04922 83.46235 39799 ft 502 kts 311°
2026-05-06 11:45 4.09499 83.40954 39797 ft 502 kts 311°
2026-05-06 11:46 4.14083 83.35664 39796 ft 502 kts 311°
2026-05-06 11:46 4.18653 83.30388 39796 ft 502 kts 311°
2026-05-06 11:47 4.23207 83.25132 39797 ft 502 kts 311°
2026-05-06 11:47 4.27779 83.19852 39792 ft 502 kts 311°
2026-05-06 11:48 4.32355 83.14567 39797 ft 502 kts 312°
2026-05-06 11:48 4.36932 83.09279 39797 ft 503 kts 312°
2026-05-06 11:49 4.41491 83.04013 39794 ft 503 kts 312°
2026-05-06 11:49 4.46071 82.98719 39794 ft 503 kts 312°
2026-05-06 11:50 4.50654 82.93423 39793 ft 503 kts 312°
2026-05-06 11:50 4.55238 82.88123 39791 ft 503 kts 312°
2026-05-06 11:51 4.59816 82.82829 39795 ft 502 kts 312°
2026-05-06 11:51 4.64357 82.77577 39800 ft 502 kts 312°
2026-05-06 11:52 4.68930 82.72286 39794 ft 502 kts 312°
2026-05-06 11:52 4.73503 82.66995 39791 ft 502 kts 312°
2026-05-06 11:53 4.78072 82.61707 39793 ft 502 kts 312°
2026-05-06 11:53 4.82610 82.56454 39794 ft 502 kts 312°
2026-05-06 11:54 4.87172 82.51172 39794 ft 502 kts 312°
2026-05-06 11:54 4.91743 82.45879 39792 ft 502 kts 312°
2026-05-06 11:55 4.96306 82.40593 39789 ft 500 kts 312°
2026-05-06 11:55 5.00848 82.35329 39792 ft 500 kts 312°
2026-05-06 11:56 5.05405 82.30048 39794 ft 500 kts 312°
2026-05-06 11:56 5.09920 82.24814 39794 ft 500 kts 312°
2026-05-06 11:57 5.14474 82.19535 39792 ft 500 kts 312°
2026-05-06 11:57 5.19026 82.14255 39794 ft 500 kts 312°
2026-05-06 11:58 5.23580 82.08973 39794 ft 500 kts 312°
2026-05-06 11:58 5.28097 82.03731 39792 ft 500 kts 312°
2026-05-06 11:59 5.32651 81.98445 39793 ft 502 kts 312°
2026-05-06 11:59 5.37231 81.93129 39794 ft 504 kts 312°
2026-05-06 12:00 5.41817 81.87803 39795 ft 504 kts 312°
2026-05-06 12:00 5.46367 81.82519 39796 ft 504 kts 312°
2026-05-06 12:01 5.50945 81.77200 39794 ft 504 kts 312°
2026-05-06 12:01 5.55522 81.71882 39794 ft 504 kts 312°
2026-05-06 12:02 5.60107 81.66552 39790 ft 504 kts 312°
2026-05-06 12:02 5.64687 81.61233 39787 ft 504 kts 312°
2026-05-06 12:03 5.69280 81.55926 39789 ft 503 kts 313°
2026-05-06 12:03 5.73838 81.50667 39791 ft 503 kts 313°
2026-05-06 12:04 5.78426 81.45368 39788 ft 503 kts 313°
2026-05-06 12:04 5.83010 81.40069 39787 ft 503 kts 313°
2026-05-06 12:05 5.87569 81.34796 39790 ft 503 kts 313°
2026-05-06 12:05 5.92155 81.29491 39790 ft 503 kts 313°
2026-05-06 12:06 5.96734 81.24193 39789 ft 503 kts 312°
2026-05-06 12:06 6.01325 81.18880 39785 ft 503 kts 312°
2026-05-06 12:07 6.05895 81.13589 39775 ft 499 kts 312°
2026-05-06 12:07 6.10399 81.08373 39791 ft 497 kts 312°
2026-05-06 12:08 6.14919 81.03126 39773 ft 497 kts 312°
2026-05-06 12:08 6.19419 80.97859 39773 ft 497 kts 312°
2026-05-06 12:09 6.23918 80.92589 39795 ft 497 kts 312°
2026-05-06 12:09 6.28430 80.87308 39789 ft 499 kts 312°
2026-05-06 12:10 6.32946 80.82026 39806 ft 503 kts 312°
2026-05-06 12:10 6.37506 80.76691 39804 ft 503 kts 312°
2026-05-06 12:11 6.42058 80.71365 39802 ft 500 kts 311°
2026-05-06 12:11 6.46584 80.66065 39837 ft 498 kts 311°
2026-05-06 12:12 6.51089 80.60839 39814 ft 498 kts 312°
2026-05-06 12:12 6.55679 80.55643 39813 ft 498 kts 313°
2026-05-06 12:13 6.60287 80.50423 39829 ft 499 kts 313°
2026-05-06 12:13 6.64901 80.45185 39812 ft 501 kts 313°
2026-05-06 12:14 6.69491 80.39977 39815 ft 501 kts 313°
2026-05-06 12:14 6.74106 80.34733 39812 ft 501 kts 313°
2026-05-06 12:15 6.78717 80.29487 39799 ft 500 kts 312°
2026-05-06 12:15 6.83334 80.24232 39782 ft 500 kts 312°
2026-05-06 12:16 6.87938 80.18990 39773 ft 500 kts 312°
2026-05-06 12:16 6.92519 80.13773 39767 ft 501 kts 313°
2026-05-06 12:17 6.97146 80.08503 39763 ft 503 kts 313°
2026-05-06 12:17 7.01770 80.03233 39762 ft 503 kts 313°
2026-05-06 12:18 7.06373 79.97986 39746 ft 503 kts 313°
2026-05-06 12:18 7.11006 79.92703 39757 ft 503 kts 313°
2026-05-06 12:19 7.15765 79.87556 39739 ft 501 kts 320°
2026-05-06 12:19 7.21413 79.83501 39740 ft 498 kts 329°
2026-05-06 12:20 7.27254 79.79813 39759 ft 498 kts 330°
2026-05-06 12:20 7.33156 79.76147 39747 ft 500 kts 330°
2026-05-06 12:21 7.39077 79.72449 39756 ft 501 kts 330°
2026-05-06 12:21 7.44981 79.68742 39759 ft 501 kts 330°
2026-05-06 12:22 7.50901 79.65021 39756 ft 501 kts 330°
2026-05-06 12:22 7.56780 79.61323 39773 ft 502 kts 330°
2026-05-06 12:23 7.62713 79.57591 39772 ft 502 kts 330°
2026-05-06 12:23 7.68643 79.53861 39765 ft 502 kts 330°
2026-05-06 12:24 7.74571 79.50130 39759 ft 502 kts 330°
2026-05-06 12:24 7.80455 79.46425 39776 ft 502 kts 330°
2026-05-06 12:25 7.86385 79.42691 39774 ft 502 kts 330°
2026-05-06 12:25 7.92194 79.38748 39760 ft 505 kts 326°
2026-05-06 12:26 7.97936 79.34628 39761 ft 507 kts 326°
2026-05-06 12:26 8.03658 79.30560 39779 ft 507 kts 326°
2026-05-06 12:27 8.09449 79.26493 39782 ft 506 kts 327°
2026-05-06 12:27 8.15242 79.22441 39781 ft 506 kts 327°
2026-05-06 12:28 8.20989 79.18421 39773 ft 506 kts 326°
2026-05-06 12:28 8.26772 79.14371 39772 ft 505 kts 326°
2026-05-06 12:29 8.32544 79.10325 39776 ft 505 kts 326°
2026-05-06 12:29 8.38313 79.06281 39774 ft 505 kts 326°
2026-05-06 12:30 8.44086 79.02233 39770 ft 506 kts 326°
2026-05-06 12:30 8.49833 78.98201 39771 ft 506 kts 326°
2026-05-06 12:31 8.55613 78.94145 39766 ft 506 kts 326°
2026-05-06 12:31 8.61447 78.90173 39769 ft 506 kts 327°
2026-05-06 12:32 8.67343 78.86296 39772 ft 506 kts 328°
2026-05-06 12:32 8.73231 78.82412 39770 ft 506 kts 327°
2026-05-06 12:33 8.79076 78.78530 39765 ft 506 kts 327°
2026-05-06 12:33 8.84954 78.74615 39767 ft 506 kts 327°
2026-05-06 12:34 8.90783 78.70730 39769 ft 506 kts 327°
2026-05-06 12:34 8.96690 78.66793 39764 ft 505 kts 327°
2026-05-06 12:35 9.02507 78.62914 39767 ft 503 kts 327°
2026-05-06 12:35 9.08356 78.59014 39767 ft 503 kts 327°
2026-05-06 12:36 9.14189 78.55121 39770 ft 503 kts 327°
2026-05-06 12:36 9.19999 78.51243 39768 ft 503 kts 327°
2026-05-06 12:37 9.25884 78.47314 39768 ft 503 kts 327°
2026-05-06 12:37 9.31684 78.43439 39768 ft 503 kts 326°
2026-05-06 12:38 9.37523 78.39537 39767 ft 503 kts 326°
2026-05-06 12:38 9.43374 78.35625 39765 ft 503 kts 326°
2026-05-06 12:39 9.49223 78.31712 39771 ft 503 kts 326°
2026-05-06 12:39 9.55021 78.27833 39775 ft 503 kts 326°
2026-05-06 12:40 9.60870 78.23917 39783 ft 503 kts 326°
2026-05-06 12:40 9.66716 78.20003 39792 ft 502 kts 326°
2026-05-06 12:41 9.72493 78.16132 39800 ft 501 kts 326°
2026-05-06 12:41 9.78303 78.12238 39801 ft 501 kts 326°
2026-05-06 12:42 9.83583 78.07663 39804 ft 499 kts 309°
2026-05-06 12:42 9.87558 78.01915 39790 ft 498 kts 302°
2026-05-06 12:43 9.91219 77.95963 39800 ft 499 kts 301°
2026-05-06 12:43 9.94843 77.89997 39811 ft 501 kts 301°
2026-05-06 12:44 9.98517 77.83992 39822 ft 502 kts 301°
2026-05-06 12:44 10.02219 77.77972 39818 ft 503 kts 301°
2026-05-06 12:45 10.05927 77.71944 39833 ft 504 kts 301°
2026-05-06 12:46 10.11470 77.62923 39844 ft 504 kts 301°
2026-05-06 12:46 10.15176 77.56887 39841 ft 504 kts 301°
2026-05-06 12:47 10.18881 77.50849 39850 ft 504 kts 301°
2026-05-06 12:47 10.22594 77.44795 39851 ft 504 kts 301°
2026-05-06 12:48 10.26299 77.38752 39850 ft 504 kts 301°
2026-05-06 12:48 10.29976 77.32749 39861 ft 504 kts 301°
2026-05-06 12:49 10.33682 77.26698 39828 ft 505 kts 300°
2026-05-06 12:49 10.37395 77.20631 39823 ft 507 kts 300°
2026-05-06 12:50 10.41108 77.14562 39824 ft 505 kts 300°
2026-05-06 12:50 10.44814 77.08502 39825 ft 504 kts 300°
2026-05-06 12:51 10.48487 77.02489 39807 ft 504 kts 300°
2026-05-06 12:51 10.52184 76.96435 39824 ft 504 kts 300°
2026-05-06 12:52 10.55570 76.90888 39821 ft 504 kts 300°
2026-05-06 12:52 10.59252 76.84852 39803 ft 504 kts 301°
2026-05-06 12:53 10.62951 76.78785 39812 ft 504 kts 301°
2026-05-06 12:53 10.66644 76.72726 39813 ft 504 kts 301°
2026-05-06 12:54 10.70324 76.66682 39791 ft 509 kts 301°
2026-05-06 12:54 10.74072 76.60525 39785 ft 513 kts 301°
2026-05-06 12:55 10.77812 76.54377 39803 ft 510 kts 301°
2026-05-06 12:55 10.81522 76.48275 39775 ft 509 kts 301°
2026-05-06 12:56 10.85228 76.42177 39773 ft 508 kts 301°
2026-05-06 12:56 10.88944 76.36058 39791 ft 508 kts 301°
2026-05-06 12:57 10.92657 76.29940 39763 ft 508 kts 301°
2026-05-06 12:57 10.96364 76.23830 39761 ft 508 kts 301°
2026-05-06 12:58 11.00075 76.17709 39744 ft 508 kts 301°
2026-05-06 12:58 11.03797 76.11565 39746 ft 510 kts 301°
2026-05-06 12:59 11.07526 76.05407 39744 ft 511 kts 301°
2026-05-06 12:59 11.11220 75.99303 39745 ft 511 kts 301°
2026-05-06 13:00 11.14982 75.93157 39728 ft 511 kts 303°
2026-05-06 13:00 11.19102 75.87265 39726 ft 511 kts 306°
2026-05-06 13:01 11.23322 75.81431 39728 ft 511 kts 306°
2026-05-06 13:01 11.27402 75.75525 39721 ft 509 kts 304°
2026-05-06 13:02 11.31346 75.69591 39718 ft 509 kts 303°
2026-05-06 13:02 11.35288 75.63657 39720 ft 506 kts 304°
2026-05-06 13:03 11.39251 75.57725 39721 ft 505 kts 304°
2026-05-06 13:03 11.43225 75.51787 39719 ft 509 kts 304°
2026-05-06 13:04 11.47210 75.45833 39715 ft 508 kts 304°
2026-05-06 13:04 11.51168 75.39914 39720 ft 510 kts 304°
2026-05-06 13:05 11.55158 75.33943 39727 ft 510 kts 304°
2026-05-06 13:05 11.59149 75.27965 39721 ft 507 kts 304°
2026-05-06 13:06 11.63121 75.22014 39724 ft 508 kts 304°
2026-05-06 13:06 11.67062 75.16104 39737 ft 506 kts 304°
2026-05-06 13:07 11.71011 75.10180 39738 ft 504 kts 304°
2026-05-06 13:07 11.74976 75.04227 39741 ft 509 kts 304°
2026-05-06 13:08 11.78955 74.98252 39742 ft 509 kts 304°
2026-05-06 13:08 11.82933 74.92273 39746 ft 511 kts 304°
2026-05-06 13:09 11.86903 74.86304 39760 ft 510 kts 304°
2026-05-06 13:09 11.90875 74.80326 39764 ft 507 kts 304°
2026-05-06 13:10 11.94844 74.74350 39742 ft 507 kts 304°
2026-05-06 13:10 11.98776 74.68426 39739 ft 508 kts 304°
2026-05-06 13:11 12.02709 74.62497 39765 ft 505 kts 304°
2026-05-06 13:11 12.06663 74.56533 39741 ft 506 kts 304°
2026-05-06 13:12 12.10605 74.50583 39739 ft 507 kts 304°
2026-05-06 13:12 12.14544 74.44634 39757 ft 510 kts 304°
2026-05-06 13:13 12.18504 74.38684 39744 ft 500 kts 303°
2026-05-06 13:13 12.22355 74.32872 39747 ft 488 kts 303°
2026-05-06 13:14 12.26095 74.27187 39758 ft 476 kts 302°
2026-05-06 13:14 12.29686 74.21608 39746 ft 464 kts 301°
2026-05-06 13:15 12.33100 74.16150 39767 ft 453 kts 301°
2026-05-06 13:15 12.36450 74.10808 39723 ft 442 kts 301°
2026-05-06 13:15 12.38111 74.08172 39484 ft 442 kts 301°
2026-05-06 13:16 12.39787 74.05521 39266 ft 443 kts 301°
2026-05-06 13:16 12.41459 74.02877 39040 ft 444 kts 301°
2026-05-06 13:16 12.43140 74.00220 38805 ft 445 kts 301°
2026-05-06 13:16 12.44815 73.97567 38570 ft 446 kts 301°
2026-05-06 13:17 12.46484 73.94926 38342 ft 447 kts 301°
2026-05-06 13:17 12.48170 73.92258 38064 ft 448 kts 301°
2026-05-06 13:17 12.49858 73.89583 37800 ft 448 kts 301°
2026-05-06 13:17 12.51554 73.86897 37542 ft 449 kts 301°
2026-05-06 13:18 12.53253 73.84204 37279 ft 451 kts 301°
2026-05-06 13:18 12.54950 73.81511 37030 ft 452 kts 301°
2026-05-06 13:18 12.56661 73.78794 36772 ft 454 kts 301°
2026-05-06 13:18 12.58373 73.76071 36522 ft 457 kts 301°
2026-05-06 13:19 12.60117 73.73326 36277 ft 464 kts 303°
2026-05-06 13:19 12.61880 73.70570 36117 ft 474 kts 303°
2026-05-06 13:19 12.63713 73.67688 36259 ft 478 kts 302°
2026-05-06 13:19 12.65496 73.64875 36421 ft 480 kts 302°
2026-05-06 13:20 12.67317 73.61990 36500 ft 484 kts 302°
2026-05-06 13:20 12.70990 73.56157 36668 ft 491 kts 302°
2026-05-06 13:20 12.72847 73.53205 36775 ft 494 kts 302°
2026-05-06 13:21 12.74706 73.50251 36895 ft 496 kts 302°
2026-05-06 13:21 12.78471 73.44268 37065 ft 502 kts 302°
2026-05-06 13:21 12.80338 73.41306 37331 ft 501 kts 302°
2026-05-06 13:22 12.82216 73.38321 37527 ft 501 kts 302°
2026-05-06 13:22 12.84108 73.35305 37680 ft 502 kts 302°
2026-05-06 13:22 12.85995 73.32297 37891 ft 501 kts 302°
2026-05-06 13:22 12.87881 73.29290 38033 ft 503 kts 302°
2026-05-06 13:23 12.89765 73.26286 38309 ft 500 kts 302°
2026-05-06 13:23 12.91647 73.23287 38509 ft 500 kts 302°
2026-05-06 13:23 12.93528 73.20287 38612 ft 501 kts 302°
2026-05-06 13:23 12.95390 73.17316 38774 ft 500 kts 302°
2026-05-06 13:24 12.97264 73.14327 39056 ft 497 kts 302°
2026-05-06 13:24 12.99134 73.11343 39220 ft 497 kts 302°
2026-05-06 13:24 13.01001 73.08362 39327 ft 498 kts 302°
2026-05-06 13:25 13.04749 73.02376 39583 ft 498 kts 302°
2026-05-06 13:25 13.06614 72.99395 39743 ft 497 kts 302°
2026-05-06 13:25 13.08462 72.96441 39784 ft 497 kts 302°
2026-05-06 13:26 13.12191 72.90476 39783 ft 499 kts 302°
2026-05-06 13:26 13.15947 72.84465 39788 ft 503 kts 302°
2026-05-06 13:27 13.19742 72.78388 39792 ft 508 kts 302°
2026-05-06 13:27 13.23570 72.72251 39790 ft 511 kts 302°
2026-05-06 13:28 13.27388 72.66129 39792 ft 513 kts 302°
2026-05-06 13:28 13.31225 72.59972 39796 ft 512 kts 302°
2026-05-06 13:29 13.35067 72.53802 39796 ft 513 kts 302°
2026-05-06 13:29 13.38916 72.47616 39779 ft 514 kts 302°
2026-05-06 13:30 13.42749 72.41451 39794 ft 516 kts 302°
2026-05-06 13:30 13.46609 72.35238 39797 ft 515 kts 302°
2026-05-06 13:31 13.50458 72.29038 39798 ft 515 kts 302°
2026-05-06 13:31 13.54299 72.22847 39801 ft 513 kts 302°
2026-05-06 13:32 13.58138 72.16655 39795 ft 513 kts 302°
2026-05-06 13:32 13.61939 72.10519 39797 ft 512 kts 302°
2026-05-06 13:33 13.65761 72.04347 39800 ft 513 kts 301°
2026-05-06 13:33 13.69589 71.98169 39801 ft 512 kts 302°
2026-05-06 13:34 13.73487 71.92048 39801 ft 511 kts 303°
2026-05-06 13:34 13.74570 71.90365 39804 ft 511 kts 303°
2026-05-06 13:35 13.74733 71.90110 39805 ft 511 kts 303°
2026-05-06 13:35 13.78677 71.83967 39805 ft 511 kts 303°
2026-05-06 13:36 13.79750 71.82291 39788 ft 511 kts 302°
2026-05-06 13:36 13.83645 71.76189 39803 ft 511 kts 303°
2026-05-06 13:37 13.87531 71.70091 39807 ft 512 kts 302°
2026-05-06 13:37 13.89837 71.66483 39805 ft 511 kts 302°
2026-05-06 13:38 13.93312 71.61019 39803 ft 511 kts 303°
2026-05-06 13:38 13.95837 71.57048 39806 ft 510 kts 302°
2026-05-06 13:39 13.99703 71.50956 39804 ft 510 kts 303°
2026-05-06 13:39 14.03582 71.44846 39806 ft 510 kts 302°
2026-05-06 13:40 14.05799 71.41355 39803 ft 510 kts 303°
2026-05-06 13:40 14.08918 71.36439 39803 ft 510 kts 302°
2026-05-06 13:41 14.10414 71.34092 39805 ft 511 kts 302°